Wetterdaten: Donnerstag, 12.02.2026
Datum Zeit Temp. Aussen Temp. o. S. Temp +5cm Feuchte Auss Luftdruck Regen Sonnenschein Regendauer Solar Windböen Empfang
12.02.2026 00:00 8,3 °C 7,8 °C 4,4 °C 96 % 980,3 hPa 0,0 l/m² 0 min 0 min 0 W/m² 12,9 km/h (3 Bft) 100,00 %
12.02.2026 00:02 8,3 °C 7,8 °C 4,4 °C 96 % 980,3 hPa 0,0 l/m² 0 min 0 min 0 W/m² 6,4 km/h (2 Bft) 95,24 %
12.02.2026 00:04 8,3 °C 7,8 °C 4,4 °C 96 % 980,2 hPa 0,0 l/m² 0 min 0 min 0 W/m² 12,9 km/h (3 Bft) 100,00 %
12.02.2026 00:07 8,3 °C 7,8 °C 4,4 °C 97 % 980,1 hPa 0,0 l/m² 0 min 0 min 0 W/m² 12,9 km/h (3 Bft) 100,00 %
12.02.2026 00:08 8,3 °C 7,8 °C 4,4 °C 97 % 980,1 hPa 0,0 l/m² 0 min 0 min 0 W/m² 12,9 km/h (3 Bft) 100,00 %
12.02.2026 00:10 8,3 °C 7,8 °C 4,4 °C 97 % 980,1 hPa 0,0 l/m² 0 min 0 min 0 W/m² 12,9 km/h (3 Bft) 100,00 %
12.02.2026 00:12 8,3 °C 7,8 °C 4,4 °C 97 % 980,1 hPa 0,0 l/m² 0 min 0 min 0 W/m² 12,9 km/h (3 Bft) 97,87 %
12.02.2026 00:14 8,3 °C 7,8 °C 4,4 °C 97 % 980,0 hPa 0,0 l/m² 0 min 0 min 0 W/m² 16,1 km/h (3 Bft) 97,87 %
12.02.2026 00:16 8,3 °C 7,8 °C 4,4 °C 96 % 979,9 hPa 0,0 l/m² 0 min 0 min 0 W/m² 16,1 km/h (3 Bft) 97,87 %
12.02.2026 00:18 8,3 °C 7,8 °C 4,4 °C 96 % 979,9 hPa 0,0 l/m² 0 min 0 min 0 W/m² 9,7 km/h (2 Bft) 98,11 %
12.02.2026 00:20 8,3 °C 7,8 °C 4,4 °C 96 % 979,9 hPa 0,0 l/m² 0 min 0 min 0 W/m² 16,1 km/h (3 Bft) 100,00 %
12.02.2026 00:22 8,3 °C 7,8 °C 4,4 °C 96 % 979,8 hPa 0,0 l/m² 0 min 0 min 0 W/m² 12,9 km/h (3 Bft) 100,00 %
12.02.2026 00:24 8,3 °C 7,8 °C 4,4 °C 96 % 979,7 hPa 0,0 l/m² 0 min 0 min 0 W/m² 19,3 km/h (3 Bft) 97,87 %
12.02.2026 00:26 8,3 °C 7,8 °C 4,4 °C 96 % 979,8 hPa 0,0 l/m² 0 min 0 min 0 W/m² 12,9 km/h (3 Bft) 100,00 %
12.02.2026 00:28 8,3 °C 7,8 °C 4,4 °C 96 % 979,6 hPa 0,0 l/m² 0 min 0 min 0 W/m² 12,9 km/h (3 Bft) 100,00 %
12.02.2026 00:30 8,3 °C 7,8 °C 4,4 °C 96 % 979,6 hPa 0,0 l/m² 0 min 2 min 0 W/m² 12,9 km/h (3 Bft) 100,00 %
12.02.2026 00:32 8,3 °C 7,8 °C 4,4 °C 96 % 979,6 hPa 0,0 l/m² 0 min 0 min 0 W/m² 6,4 km/h (2 Bft) 95,74 %
12.02.2026 00:34 8,3 °C 7,8 °C 4,4 °C 96 % 979,6 hPa 0,0 l/m² 0 min 0 min 0 W/m² 12,9 km/h (3 Bft) 100,00 %
12.02.2026 00:36 8,3 °C 7,8 °C 4,4 °C 96 % 979,5 hPa 0,0 l/m² 0 min 0 min 0 W/m² 16,1 km/h (3 Bft) 95,74 %
12.02.2026 00:38 8,3 °C 7,8 °C 4,4 °C 96 % 979,5 hPa 0,0 l/m² 0 min 0 min 0 W/m² 12,9 km/h (3 Bft) 97,87 %
12.02.2026 00:40 8,3 °C 7,8 °C 4,4 °C 96 % 979,5 hPa 0,0 l/m² 0 min 2 min 0 W/m² 6,4 km/h (2 Bft) 95,74 %
12.02.2026 00:42 8,3 °C 7,8 °C 4,4 °C 96 % 979,5 hPa 0,0 l/m² 0 min 2 min 0 W/m² 12,9 km/h (3 Bft) 97,87 %
12.02.2026 00:44 8,3 °C 7,8 °C 4,4 °C 96 % 979,4 hPa 0,0 l/m² 0 min 0 min 0 W/m² 16,1 km/h (3 Bft) 97,83 %
12.02.2026 00:46 8,3 °C 7,8 °C 4,4 °C 97 % 979,4 hPa 0,2 l/m² 0 min 2 min 0 W/m² 12,9 km/h (3 Bft) 97,87 %
12.02.2026 00:48 8,3 °C 7,8 °C 4,4 °C 97 % 979,3 hPa 0,0 l/m² 0 min 2 min 0 W/m² 12,9 km/h (3 Bft) 97,87 %
12.02.2026 00:50 8,3 °C 7,8 °C 4,4 °C 97 % 979,4 hPa 0,0 l/m² 0 min 2 min 0 W/m² 12,9 km/h (3 Bft) 97,87 %
12.02.2026 00:52 8,3 °C 7,8 °C 4,4 °C 97 % 979,3 hPa 0,0 l/m² 0 min 2 min 0 W/m² 12,9 km/h (3 Bft) 95,74 %
12.02.2026 00:54 8,3 °C 7,8 °C 4,4 °C 97 % 979,2 hPa 0,0 l/m² 0 min 0 min 0 W/m² 12,9 km/h (3 Bft) 93,62 %
12.02.2026 00:56 8,3 °C 7,8 °C 4,4 °C 97 % 979,2 hPa 0,0 l/m² 0 min 0 min 0 W/m² 6,4 km/h (2 Bft) 91,49 %
12.02.2026 00:58 8,3 °C 7,8 °C 4,4 °C 96 % 979,2 hPa 0,0 l/m² 0 min 0 min 0 W/m² 12,9 km/h (3 Bft) 95,74 %
12.02.2026 01:00 8,3 °C 7,8 °C 4,4 °C 96 % 979,2 hPa 0,0 l/m² 0 min 0 min 0 W/m² 12,9 km/h (3 Bft) 95,74 %
12.02.2026 01:02 8,3 °C 7,8 °C 4,4 °C 96 % 979,1 hPa 0,0 l/m² 0 min 2 min 0 W/m² 9,7 km/h (2 Bft) 95,74 %
12.02.2026 01:04 8,3 °C 7,8 °C 4,4 °C 96 % 979,0 hPa 0,0 l/m² 0 min 2 min 0 W/m² 12,9 km/h (3 Bft) 95,74 %
12.02.2026 01:06 8,3 °C 7,2 °C 4,4 °C 96 % 979,0 hPa 0,2 l/m² 0 min 2 min 0 W/m² 12,9 km/h (3 Bft) 94,83 %
12.02.2026 01:08 8,3 °C 7,2 °C 4,4 °C 96 % 979,0 hPa 0,2 l/m² 0 min 2 min 0 W/m² 16,1 km/h (3 Bft) 94,44 %
12.02.2026 01:10 8,3 °C 7,2 °C 4,4 °C 96 % 979,0 hPa 0,0 l/m² 0 min 2 min 0 W/m² 16,1 km/h (3 Bft) 95,74 %
12.02.2026 01:12 8,3 °C 7,2 °C 4,4 °C 96 % 978,9 hPa 0,0 l/m² 0 min 2 min 0 W/m² 12,9 km/h (3 Bft) 95,74 %
12.02.2026 01:14 8,3 °C 7,2 °C 4,4 °C 97 % 978,9 hPa 0,2 l/m² 0 min 2 min 0 W/m² 16,1 km/h (3 Bft) 95,74 %
12.02.2026 01:16 8,3 °C 7,2 °C 4,4 °C 96 % 978,8 hPa 0,2 l/m² 0 min 2 min 0 W/m² 12,9 km/h (3 Bft) 93,62 %
12.02.2026 01:18 8,3 °C 7,2 °C 3,9 °C 96 % 978,8 hPa 0,0 l/m² 0 min 2 min 0 W/m² 12,9 km/h (3 Bft) 95,74 %
12.02.2026 01:20 8,3 °C 7,2 °C 3,9 °C 96 % 978,7 hPa 0,0 l/m² 0 min 2 min 0 W/m² 12,9 km/h (3 Bft) 95,74 %
12.02.2026 01:22 8,2 °C 7,2 °C 3,9 °C 96 % 978,6 hPa 0,2 l/m² 0 min 2 min 0 W/m² 12,9 km/h (3 Bft) 91,49 %
12.02.2026 01:24 8,2 °C 7,2 °C 3,9 °C 96 % 978,6 hPa 0,2 l/m² 0 min 2 min 0 W/m² 12,9 km/h (3 Bft) 95,74 %
12.02.2026 01:26 8,2 °C 7,2 °C 4,4 °C 96 % 978,6 hPa 0,0 l/m² 0 min 2 min 0 W/m² 12,9 km/h (3 Bft) 95,74 %
12.02.2026 01:28 8,2 °C 7,2 °C 4,4 °C 96 % 978,5 hPa 0,0 l/m² 0 min 2 min 0 W/m² 16,1 km/h (3 Bft) 97,83 %
12.02.2026 01:30 8,2 °C 7,2 °C 4,4 °C 96 % 978,5 hPa 0,0 l/m² 0 min 2 min 0 W/m² 16,1 km/h (3 Bft) 95,74 %
12.02.2026 01:32 8,2 °C 7,2 °C 4,4 °C 96 % 978,3 hPa 0,2 l/m² 0 min 2 min 0 W/m² 12,9 km/h (3 Bft) 95,74 %
12.02.2026 01:34 8,2 °C 7,2 °C 4,4 °C 97 % 978,3 hPa 0,2 l/m² 0 min 2 min 0 W/m² 12,9 km/h (3 Bft) 93,62 %
12.02.2026 01:36 8,2 °C 7,2 °C 4,4 °C 97 % 978,2 hPa 0,0 l/m² 0 min 2 min 0 W/m² 12,9 km/h (3 Bft) 95,74 %
12.02.2026 01:38 8,2 °C 7,2 °C 4,4 °C 97 % 978,2 hPa 0,0 l/m² 0 min 2 min 0 W/m² 12,9 km/h (3 Bft) 95,74 %
12.02.2026 01:40 8,2 °C 7,2 °C 4,4 °C 97 % 978,1 hPa 0,0 l/m² 0 min 2 min 0 W/m² 12,9 km/h (3 Bft) 93,62 %
12.02.2026 01:42 8,2 °C 7,2 °C 4,4 °C 97 % 978,1 hPa 0,0 l/m² 0 min 2 min 0 W/m² 16,1 km/h (3 Bft) 97,87 %
12.02.2026 01:44 8,2 °C 7,2 °C 4,4 °C 97 % 978,0 hPa 0,2 l/m² 0 min 0 min 0 W/m² 19,3 km/h (3 Bft) 95,74 %
12.02.2026 01:46 8,2 °C 7,2 °C 4,4 °C 97 % 977,9 hPa 0,0 l/m² 0 min 0 min 0 W/m² 12,9 km/h (3 Bft) 95,74 %
12.02.2026 01:48 8,2 °C 7,2 °C 4,4 °C 97 % 977,9 hPa 0,2 l/m² 0 min 2 min 0 W/m² 6,4 km/h (2 Bft) 97,83 %
12.02.2026 01:50 8,2 °C 7,2 °C 4,4 °C 97 % 977,8 hPa 0,0 l/m² 0 min 2 min 0 W/m² 12,9 km/h (3 Bft) 100,00 %
12.02.2026 01:52 8,2 °C 7,2 °C 4,4 °C 97 % 977,6 hPa 0,0 l/m² 0 min 0 min 0 W/m² 9,7 km/h (2 Bft) 100,00 %
12.02.2026 01:54 8,2 °C 7,2 °C 4,4 °C 97 % 977,6 hPa 0,0 l/m² 0 min 2 min 0 W/m² 12,9 km/h (3 Bft) 100,00 %
12.02.2026 01:56 8,2 °C 7,2 °C 4,4 °C 97 % 977,5 hPa 0,0 l/m² 0 min 2 min 0 W/m² 19,3 km/h (3 Bft) 100,00 %
12.02.2026 01:58 8,2 °C 7,2 °C 4,4 °C 97 % 977,5 hPa 0,2 l/m² 0 min 2 min 0 W/m² 19,3 km/h (3 Bft) 97,87 %
12.02.2026 02:00 8,2 °C 7,2 °C 4,4 °C 97 % 977,4 hPa 0,0 l/m² 0 min 2 min 0 W/m² 12,9 km/h (3 Bft) 100,00 %
12.02.2026 02:02 8,2 °C 7,2 °C 4,4 °C 97 % 977,4 hPa 0,0 l/m² 0 min 2 min 0 W/m² 12,9 km/h (3 Bft) 97,87 %
12.02.2026 02:04 8,2 °C 7,2 °C 4,4 °C 97 % 977,3 hPa 0,0 l/m² 0 min 2 min 0 W/m² 16,1 km/h (3 Bft) 100,00 %
12.02.2026 02:06 8,2 °C 7,2 °C 4,4 °C 97 % 977,2 hPa 0,2 l/m² 0 min 0 min 0 W/m² 16,1 km/h (3 Bft) 100,00 %
12.02.2026 02:08 8,2 °C 7,2 °C 4,4 °C 97 % 977,1 hPa 0,0 l/m² 0 min 0 min 0 W/m² 16,1 km/h (3 Bft) 100,00 %
12.02.2026 02:10 8,2 °C 7,2 °C 4,4 °C 97 % 977,0 hPa 0,0 l/m² 0 min 0 min 0 W/m² 16,1 km/h (3 Bft) 100,00 %
12.02.2026 02:17 8,2 °C 7,2 °C 4,4 °C 97 % 976,9 hPa 0,0 l/m² 0 min 0 min 0 W/m² 16,1 km/h (3 Bft) 100,00 %
12.02.2026 02:18 8,2 °C 7,2 °C 4,4 °C 97 % 976,9 hPa 0,0 l/m² 0 min 0 min 0 W/m² 22,5 km/h (4 Bft) 95,65 %
12.02.2026 02:20 8,2 °C 7,2 °C 4,4 °C 97 % 976,8 hPa 0,2 l/m² 0 min 0 min 0 W/m² 16,1 km/h (3 Bft) 95,74 %
12.02.2026 02:22 8,2 °C 7,2 °C 4,4 °C 97 % 976,7 hPa 0,0 l/m² 0 min 0 min 0 W/m² 19,3 km/h (3 Bft) 100,00 %
12.02.2026 02:24 8,2 °C 7,2 °C 4,4 °C 98 % 976,7 hPa 0,0 l/m² 0 min 0 min 0 W/m² 25,7 km/h (4 Bft) 98,00 %
12.02.2026 02:29 8,2 °C 7,2 °C 4,4 °C 98 % 976,6 hPa 0,0 l/m² 0 min 0 min 0 W/m² 22,5 km/h (4 Bft) 98,53 %
12.02.2026 02:30 8,2 °C 7,2 °C 4,4 °C 98 % 976,6 hPa 0,0 l/m² 0 min 0 min 0 W/m² 12,9 km/h (3 Bft) 100,00 %
12.02.2026 02:32 8,2 °C 7,2 °C 4,4 °C 98 % 976,5 hPa 0,2 l/m² 0 min 0 min 0 W/m² 16,1 km/h (3 Bft) 97,87 %
12.02.2026 02:34 8,2 °C 7,2 °C 4,4 °C 98 % 976,5 hPa 0,0 l/m² 0 min 0 min 0 W/m² 12,9 km/h (3 Bft) 95,12 %
12.02.2026 02:36 8,2 °C 7,2 °C 4,4 °C 98 % 976,4 hPa 0,0 l/m² 0 min 2 min 0 W/m² 12,9 km/h (3 Bft) 97,87 %
12.02.2026 02:38 8,2 °C 7,2 °C 4,4 °C 98 % 976,4 hPa 0,0 l/m² 0 min 0 min 0 W/m² 19,3 km/h (3 Bft) 100,00 %
12.02.2026 02:40 8,2 °C 7,2 °C 4,4 °C 98 % 976,3 hPa 0,0 l/m² 0 min 0 min 0 W/m² 12,9 km/h (3 Bft) 97,83 %
12.02.2026 02:42 8,2 °C 7,2 °C 4,4 °C 98 % 976,3 hPa 0,0 l/m² 0 min 0 min 0 W/m² 19,3 km/h (3 Bft) 100,00 %
12.02.2026 02:44 8,2 °C 7,2 °C 4,4 °C 98 % 976,3 hPa 0,0 l/m² 0 min 0 min 0 W/m² 19,3 km/h (3 Bft) 100,00 %
12.02.2026 02:46 8,2 °C 7,2 °C 4,4 °C 98 % 976,2 hPa 0,0 l/m² 0 min 0 min 0 W/m² 12,9 km/h (3 Bft) 100,00 %
12.02.2026 02:48 8,2 °C 7,2 °C 4,4 °C 98 % 976,2 hPa 0,0 l/m² 0 min 0 min 0 W/m² 16,1 km/h (3 Bft) 97,87 %
12.02.2026 02:50 8,2 °C 7,2 °C 4,4 °C 98 % 976,1 hPa 0,0 l/m² 0 min 0 min 0 W/m² 12,9 km/h (3 Bft) 97,87 %
12.02.2026 02:52 8,2 °C 7,2 °C 4,4 °C 98 % 976,0 hPa 0,0 l/m² 0 min 0 min 0 W/m² 12,9 km/h (3 Bft) 100,00 %
12.02.2026 02:54 8,2 °C 7,2 °C 4,4 °C 98 % 976,0 hPa 0,0 l/m² 0 min 2 min 0 W/m² 12,9 km/h (3 Bft) 97,87 %
12.02.2026 02:56 8,2 °C 7,2 °C 4,4 °C 98 % 976,0 hPa 0,0 l/m² 0 min 2 min 0 W/m² 16,1 km/h (3 Bft) 100,00 %
12.02.2026 02:58 8,2 °C 7,2 °C 4,4 °C 98 % 975,9 hPa 0,2 l/m² 0 min 2 min 0 W/m² 9,7 km/h (2 Bft) 100,00 %
12.02.2026 03:00 8,2 °C 7,2 °C 4,4 °C 98 % 975,9 hPa 0,0 l/m² 0 min 2 min 0 W/m² 19,3 km/h (3 Bft) 97,87 %
12.02.2026 03:02 8,2 °C 7,2 °C 4,4 °C 98 % 975,9 hPa 0,0 l/m² 0 min 2 min 0 W/m² 12,9 km/h (3 Bft) 100,00 %
12.02.2026 03:04 8,2 °C 7,2 °C 4,4 °C 98 % 975,9 hPa 0,0 l/m² 0 min 2 min 0 W/m² 12,9 km/h (3 Bft) 100,00 %
12.02.2026 03:06 8,2 °C 7,2 °C 4,4 °C 98 % 975,7 hPa 0,0 l/m² 0 min 2 min 0 W/m² 22,5 km/h (4 Bft) 95,45 %
12.02.2026 03:11 8,2 °C 7,2 °C 4,4 °C 98 % 975,6 hPa 0,0 l/m² 0 min 5 min 0 W/m² 16,1 km/h (3 Bft) 100,00 %
12.02.2026 03:12 8,2 °C 7,2 °C 4,4 °C 98 % 975,6 hPa 0,2 l/m² 0 min 1 min 0 W/m² 16,1 km/h (3 Bft) 95,65 %
12.02.2026 03:14 8,2 °C 7,2 °C 4,4 °C 98 % 975,5 hPa 0,0 l/m² 0 min 2 min 0 W/m² 16,1 km/h (3 Bft) 97,87 %
12.02.2026 03:16 8,2 °C 7,2 °C 4,4 °C 98 % 975,4 hPa 0,0 l/m² 0 min 2 min 0 W/m² 16,1 km/h (3 Bft) 100,00 %
12.02.2026 03:18 8,2 °C 7,2 °C 4,4 °C 98 % 975,4 hPa 0,0 l/m² 0 min 2 min 0 W/m² 12,9 km/h (3 Bft) 93,62 %
12.02.2026 03:20 8,2 °C 7,2 °C 4,4 °C 98 % 975,3 hPa 0,0 l/m² 0 min 2 min 0 W/m² 16,1 km/h (3 Bft) 100,00 %
12.02.2026 03:22 8,2 °C 7,2 °C 4,4 °C 98 % 975,2 hPa 0,0 l/m² 0 min 2 min 0 W/m² 16,1 km/h (3 Bft) 95,74 %
12.02.2026 03:24 8,2 °C 7,2 °C 4,4 °C 98 % 975,2 hPa 0,0 l/m² 0 min 0 min 0 W/m² 16,1 km/h (3 Bft) 93,62 %
12.02.2026 03:26 8,1 °C 7,2 °C 4,4 °C 98 % 975,1 hPa 0,0 l/m² 0 min 0 min 0 W/m² 12,9 km/h (3 Bft) 95,74 %
12.02.2026 03:28 8,2 °C 7,2 °C 4,4 °C 98 % 975,1 hPa 0,0 l/m² 0 min 0 min 0 W/m² 22,5 km/h (4 Bft) 89,13 %
12.02.2026 03:30 8,1 °C 7,2 °C 4,4 °C 98 % 975,1 hPa 0,0 l/m² 0 min 0 min 0 W/m² 16,1 km/h (3 Bft) 95,74 %
12.02.2026 03:32 8,1 °C 7,2 °C 4,4 °C 98 % 975,1 hPa 0,0 l/m² 0 min 0 min 0 W/m² 19,3 km/h (3 Bft) 95,74 %
12.02.2026 03:34 8,1 °C 7,2 °C 4,4 °C 98 % 975,0 hPa 0,0 l/m² 0 min 0 min 0 W/m² 19,3 km/h (3 Bft) 93,62 %
12.02.2026 03:36 8,1 °C 7,2 °C 4,4 °C 98 % 975,0 hPa 0,0 l/m² 0 min 0 min 0 W/m² 22,5 km/h (4 Bft) 91,49 %
12.02.2026 03:38 8,1 °C 7,2 °C 4,4 °C 98 % 974,9 hPa 0,0 l/m² 0 min 0 min 0 W/m² 12,9 km/h (3 Bft) 93,62 %
12.02.2026 03:40 8,1 °C 7,2 °C 4,4 °C 98 % 974,9 hPa 0,0 l/m² 0 min 0 min 0 W/m² 19,3 km/h (3 Bft) 97,87 %
12.02.2026 03:42 8,1 °C 7,2 °C 4,4 °C 98 % 974,8 hPa 0,0 l/m² 0 min 0 min 0 W/m² 19,3 km/h (3 Bft) 100,00 %
12.02.2026 03:44 8,2 °C 7,2 °C 4,4 °C 98 % 974,8 hPa 0,2 l/m² 0 min 0 min 0 W/m² 19,3 km/h (3 Bft) 97,87 %
12.02.2026 03:46 8,1 °C 7,2 °C 4,4 °C 98 % 974,9 hPa 0,0 l/m² 0 min 2 min 0 W/m² 16,1 km/h (3 Bft) 95,74 %
12.02.2026 03:48 8,2 °C 7,2 °C 4,4 °C 98 % 974,8 hPa 0,0 l/m² 0 min 2 min 0 W/m² 12,9 km/h (3 Bft) 95,74 %
12.02.2026 03:50 8,1 °C 7,2 °C 4,4 °C 98 % 974,8 hPa 0,0 l/m² 0 min 2 min 0 W/m² 16,1 km/h (3 Bft) 97,87 %
12.02.2026 03:52 8,1 °C 7,2 °C 4,4 °C 98 % 974,7 hPa 0,2 l/m² 0 min 2 min 0 W/m² 16,1 km/h (3 Bft) 97,87 %
12.02.2026 03:54 8,1 °C 7,2 °C 4,4 °C 98 % 974,7 hPa 0,0 l/m² 0 min 2 min 0 W/m² 16,1 km/h (3 Bft) 97,87 %
12.02.2026 03:56 8,1 °C 7,2 °C 4,4 °C 98 % 974,7 hPa 0,0 l/m² 0 min 0 min 0 W/m² 16,1 km/h (3 Bft) 93,48 %
12.02.2026 03:58 8,1 °C 7,2 °C 4,4 °C 98 % 974,7 hPa 0,0 l/m² 0 min 0 min 0 W/m² 19,3 km/h (3 Bft) 97,87 %
12.02.2026 04:00 8,1 °C 7,2 °C 4,4 °C 98 % 974,6 hPa 0,0 l/m² 0 min 2 min 0 W/m² 16,1 km/h (3 Bft) 97,87 %
12.02.2026 04:02 8,1 °C 7,2 °C 4,4 °C 98 % 974,6 hPa 0,2 l/m² 0 min 2 min 0 W/m² 16,1 km/h (3 Bft) 95,74 %
12.02.2026 04:04 8,2 °C 7,2 °C 4,4 °C 98 % 974,6 hPa 0,0 l/m² 0 min 2 min 0 W/m² 12,9 km/h (3 Bft) 97,92 %
12.02.2026 04:06 8,1 °C 7,2 °C 4,4 °C 98 % 974,5 hPa 0,0 l/m² 0 min 0 min 0 W/m² 12,9 km/h (3 Bft) 98,31 %
12.02.2026 04:08 8,1 °C 7,2 °C 4,4 °C 98 % 974,5 hPa 0,0 l/m² 0 min 0 min 0 W/m² 12,9 km/h (3 Bft) 97,14 %
12.02.2026 04:10 8,2 °C 7,2 °C 4,4 °C 98 % 974,5 hPa 0,2 l/m² 0 min 2 min 0 W/m² 19,3 km/h (3 Bft) 97,87 %
12.02.2026 04:12 8,1 °C 7,2 °C 4,4 °C 98 % 974,5 hPa 0,0 l/m² 0 min 2 min 0 W/m² 12,9 km/h (3 Bft) 97,87 %
12.02.2026 04:14 8,2 °C 7,2 °C 4,4 °C 98 % 974,5 hPa 0,0 l/m² 0 min 0 min 0 W/m² 12,9 km/h (3 Bft) 97,87 %
12.02.2026 04:16 8,1 °C 7,2 °C 4,4 °C 98 % 974,4 hPa 0,0 l/m² 0 min 0 min 0 W/m² 9,7 km/h (2 Bft) 97,87 %
12.02.2026 04:18 8,2 °C 7,2 °C 4,4 °C 98 % 974,4 hPa 0,0 l/m² 0 min 2 min 0 W/m² 12,9 km/h (3 Bft) 95,74 %
12.02.2026 04:20 8,1 °C 7,2 °C 4,4 °C 98 % 974,4 hPa 0,0 l/m² 0 min 2 min 0 W/m² 19,3 km/h (3 Bft) 95,65 %
12.02.2026 04:22 8,2 °C 7,2 °C 4,4 °C 98 % 974,4 hPa 0,2 l/m² 0 min 2 min 0 W/m² 12,9 km/h (3 Bft) 97,87 %
12.02.2026 04:24 8,1 °C 7,2 °C 4,4 °C 98 % 974,4 hPa 0,0 l/m² 0 min 0 min 0 W/m² 16,1 km/h (3 Bft) 95,74 %
12.02.2026 04:26 8,1 °C 7,2 °C 4,4 °C 98 % 974,4 hPa 0,0 l/m² 0 min 0 min 0 W/m² 29,0 km/h (5 Bft) 97,87 %
12.02.2026 04:28 8,1 °C 7,2 °C 4,4 °C 98 % 974,3 hPa 0,0 l/m² 0 min 2 min 0 W/m² 16,1 km/h (3 Bft) 95,74 %
12.02.2026 04:30 8,1 °C 7,2 °C 4,4 °C 98 % 974,3 hPa 0,0 l/m² 0 min 0 min 0 W/m² 12,9 km/h (3 Bft) 95,74 %
12.02.2026 04:32 8,1 °C 7,2 °C 4,4 °C 98 % 974,3 hPa 0,0 l/m² 0 min 0 min 0 W/m² 12,9 km/h (3 Bft) 97,87 %
12.02.2026 04:34 8,1 °C 7,2 °C 4,4 °C 98 % 974,3 hPa 0,0 l/m² 0 min 0 min 0 W/m² 19,3 km/h (3 Bft) 97,87 %
12.02.2026 04:36 8,1 °C 7,2 °C 4,4 °C 98 % 974,3 hPa 0,0 l/m² 0 min 2 min 0 W/m² 16,1 km/h (3 Bft) 93,62 %
12.02.2026 04:38 8,1 °C 7,2 °C 4,4 °C 98 % 974,3 hPa 0,0 l/m² 0 min 0 min 0 W/m² 12,9 km/h (3 Bft) 97,87 %
12.02.2026 04:40 8,1 °C 7,2 °C 4,4 °C 98 % 974,3 hPa 0,0 l/m² 0 min 0 min 0 W/m² 19,3 km/h (3 Bft) 97,87 %
12.02.2026 04:42 8,1 °C 7,2 °C 4,4 °C 98 % 974,3 hPa 0,0 l/m² 0 min 2 min 0 W/m² 16,1 km/h (3 Bft) 97,83 %
12.02.2026 04:44 8,1 °C 7,2 °C 4,4 °C 98 % 974,3 hPa 0,2 l/m² 0 min 0 min 0 W/m² 16,1 km/h (3 Bft) 100,00 %
12.02.2026 04:46 8,1 °C 7,2 °C 4,4 °C 98 % 974,3 hPa 0,0 l/m² 0 min 2 min 0 W/m² 25,7 km/h (4 Bft) 100,00 %
12.02.2026 04:48 8,1 °C 7,2 °C 4,4 °C 98 % 974,3 hPa 0,0 l/m² 0 min 0 min 0 W/m² 16,1 km/h (3 Bft) 97,87 %
12.02.2026 04:50 8,1 °C 7,2 °C 4,4 °C 98 % 974,4 hPa 0,0 l/m² 0 min 2 min 0 W/m² 16,1 km/h (3 Bft) 97,87 %
12.02.2026 04:52 8,1 °C 7,2 °C 4,4 °C 98 % 974,4 hPa 0,0 l/m² 0 min 0 min 0 W/m² 22,5 km/h (4 Bft) 100,00 %
12.02.2026 04:54 8,1 °C 7,2 °C 4,4 °C 98 % 974,4 hPa 0,2 l/m² 0 min 0 min 0 W/m² 12,9 km/h (3 Bft) 100,00 %
12.02.2026 04:56 8,1 °C 7,2 °C 4,4 °C 98 % 974,3 hPa 0,0 l/m² 0 min 2 min 0 W/m² 22,5 km/h (4 Bft) 100,00 %
12.02.2026 04:58 8,1 °C 7,2 °C 4,4 °C 98 % 974,3 hPa 0,0 l/m² 0 min 0 min 0 W/m² 12,9 km/h (3 Bft) 97,87 %
12.02.2026 05:00 8,1 °C 7,2 °C 4,4 °C 98 % 974,3 hPa 0,0 l/m² 0 min 0 min 0 W/m² 25,7 km/h (4 Bft) 97,87 %
12.02.2026 05:02 8,1 °C 7,2 °C 4,4 °C 99 % 974,3 hPa 0,2 l/m² 0 min 0 min 0 W/m² 12,9 km/h (3 Bft) 96,30 %
12.02.2026 05:04 8,1 °C 7,2 °C 4,4 °C 99 % 974,3 hPa 0,0 l/m² 0 min 0 min 0 W/m² 12,9 km/h (3 Bft) 95,92 %
12.02.2026 05:06 8,1 °C 7,2 °C 4,4 °C 99 % 974,3 hPa 0,0 l/m² 0 min 0 min 0 W/m² 16,1 km/h (3 Bft) 97,87 %
12.02.2026 05:08 8,1 °C 7,2 °C 4,4 °C 99 % 974,3 hPa 0,0 l/m² 0 min 0 min 0 W/m² 12,9 km/h (3 Bft) 95,83 %
12.02.2026 05:10 8,1 °C 7,2 °C 4,4 °C 99 % 974,3 hPa 0,0 l/m² 0 min 0 min 0 W/m² 12,9 km/h (3 Bft) 97,87 %
12.02.2026 05:12 8,1 °C 7,2 °C 4,4 °C 99 % 974,3 hPa 0,0 l/m² 0 min 0 min 0 W/m² 19,3 km/h (3 Bft) 95,74 %
12.02.2026 05:14 8,1 °C 7,2 °C 4,4 °C 99 % 974,3 hPa 0,0 l/m² 0 min 0 min 0 W/m² 12,9 km/h (3 Bft) 97,14 %
12.02.2026 05:16 8,1 °C 7,2 °C 4,4 °C 99 % 974,2 hPa 0,0 l/m² 0 min 0 min 0 W/m² 12,9 km/h (3 Bft) 97,87 %
12.02.2026 05:18 8,1 °C 7,2 °C 4,4 °C 99 % 974,2 hPa 0,0 l/m² 0 min 0 min 0 W/m² 12,9 km/h (3 Bft) 95,74 %
12.02.2026 05:20 8,1 °C 7,2 °C 4,4 °C 99 % 974,2 hPa 0,0 l/m² 0 min 0 min 0 W/m² 9,7 km/h (2 Bft) 97,87 %
12.02.2026 05:22 8,1 °C 7,2 °C 4,4 °C 99 % 974,2 hPa 0,0 l/m² 0 min 0 min 0 W/m² 12,9 km/h (3 Bft) 97,87 %
12.02.2026 05:24 8,1 °C 7,2 °C 4,4 °C 99 % 974,2 hPa 0,0 l/m² 0 min 0 min 0 W/m² 12,9 km/h (3 Bft) 95,74 %
12.02.2026 05:26 8,1 °C 7,2 °C 4,4 °C 99 % 974,2 hPa 0,2 l/m² 0 min 0 min 0 W/m² 12,9 km/h (3 Bft) 93,62 %
12.02.2026 05:28 8,1 °C 7,2 °C 4,4 °C 99 % 974,2 hPa 0,0 l/m² 0 min 0 min 0 W/m² 6,4 km/h (2 Bft) 95,74 %
12.02.2026 05:30 8,1 °C 7,2 °C 4,4 °C 99 % 974,2 hPa 0,0 l/m² 0 min 0 min 0 W/m² 6,4 km/h (2 Bft) 97,83 %
12.02.2026 05:32 8,1 °C 7,2 °C 4,4 °C 99 % 974,2 hPa 0,0 l/m² 0 min 0 min 0 W/m² 12,9 km/h (3 Bft) 93,62 %
12.02.2026 05:34 8,1 °C 7,2 °C 4,4 °C 98 % 974,2 hPa 0,0 l/m² 0 min 0 min 0 W/m² 6,4 km/h (2 Bft) 97,87 %
12.02.2026 05:36 8,1 °C 7,2 °C 4,4 °C 98 % 974,2 hPa 0,2 l/m² 0 min 0 min 0 W/m² 3,2 km/h (1 Bft) 97,87 %
12.02.2026 05:38 8,1 °C 7,2 °C 4,4 °C 98 % 974,2 hPa 0,0 l/m² 0 min 0 min 0 W/m² 6,4 km/h (2 Bft) 100,00 %
12.02.2026 05:40 8,1 °C 7,2 °C 4,4 °C 98 % 974,2 hPa 0,0 l/m² 0 min 0 min 0 W/m² 6,4 km/h (2 Bft) 97,87 %
12.02.2026 05:42 8,1 °C 7,2 °C 4,4 °C 98 % 974,1 hPa 0,0 l/m² 0 min 0 min 0 W/m² 3,2 km/h (1 Bft) 97,87 %
12.02.2026 05:44 8,0 °C 7,2 °C 4,4 °C 98 % 974,1 hPa 0,0 l/m² 0 min 0 min 0 W/m² 3,2 km/h (1 Bft) 97,87 %
12.02.2026 05:46 8,0 °C 7,2 °C 4,4 °C 98 % 974,1 hPa 0,0 l/m² 0 min 0 min 0 W/m² 6,4 km/h (2 Bft) 97,87 %
12.02.2026 05:48 8,0 °C 7,2 °C 4,4 °C 98 % 974,1 hPa 0,0 l/m² 0 min 0 min 0 W/m² 3,2 km/h (1 Bft) 97,87 %
12.02.2026 05:50 8,1 °C 7,2 °C 4,4 °C 98 % 974,1 hPa 0,2 l/m² 0 min 2 min 0 W/m² 6,4 km/h (2 Bft) 97,87 %
12.02.2026 05:52 8,0 °C 7,2 °C 4,4 °C 98 % 974,0 hPa 0,0 l/m² 0 min 2 min 0 W/m² 6,4 km/h (2 Bft) 97,83 %
12.02.2026 05:54 8,0 °C 7,2 °C 4,4 °C 99 % 974,0 hPa 0,0 l/m² 0 min 0 min 0 W/m² 3,2 km/h (1 Bft) 97,96 %
12.02.2026 05:56 8,0 °C 7,2 °C 4,4 °C 99 % 974,0 hPa 0,0 l/m² 0 min 2 min 0 W/m² 6,4 km/h (2 Bft) 95,74 %
12.02.2026 05:58 8,0 °C 7,2 °C 4,4 °C 99 % 974,0 hPa 0,0 l/m² 0 min 0 min 0 W/m² 6,4 km/h (2 Bft) 97,87 %
12.02.2026 06:00 8,0 °C 7,2 °C 4,4 °C 99 % 974,0 hPa 0,0 l/m² 0 min 0 min 0 W/m² 3,2 km/h (1 Bft) 95,74 %
12.02.2026 06:02 8,0 °C 7,2 °C 4,4 °C 99 % 974,1 hPa 0,0 l/m² 0 min 0 min 0 W/m² 6,4 km/h (2 Bft) 97,87 %
12.02.2026 06:04 8,0 °C 7,2 °C 4,4 °C 99 % 974,1 hPa 0,0 l/m² 0 min 0 min 0 W/m² 6,4 km/h (2 Bft) 97,92 %
12.02.2026 06:07 8,0 °C 7,2 °C 4,4 °C 99 % 974,1 hPa 0,2 l/m² 0 min 3 min 0 W/m² 3,2 km/h (1 Bft) 98,57 %
12.02.2026 06:08 8,0 °C 7,2 °C 4,4 °C 99 % 974,1 hPa 0,0 l/m² 0 min 1 min 0 W/m² 3,2 km/h (1 Bft) 95,83 %
12.02.2026 06:12 8,0 °C 7,2 °C 4,4 °C 99 % 974,0 hPa 0,0 l/m² 0 min 0 min 0 W/m² 3,2 km/h (1 Bft) 98,28 %
12.02.2026 06:14 8,0 °C 7,2 °C 4,4 °C 99 % 973,9 hPa 0,0 l/m² 0 min 0 min 0 W/m² 6,4 km/h (2 Bft) 97,87 %
12.02.2026 06:16 8,0 °C 7,2 °C 4,4 °C 99 % 973,9 hPa 0,0 l/m² 0 min 0 min 0 W/m² 12,9 km/h (3 Bft) 97,87 %
12.02.2026 06:18 8,0 °C 7,2 °C 4,4 °C 99 % 973,9 hPa 0,0 l/m² 0 min 0 min 0 W/m² 6,4 km/h (2 Bft) 97,87 %
12.02.2026 06:20 8,0 °C 7,2 °C 4,4 °C 99 % 973,9 hPa 0,0 l/m² 0 min 2 min 0 W/m² 6,4 km/h (2 Bft) 95,74 %
12.02.2026 06:22 8,0 °C 7,2 °C 4,4 °C 99 % 973,9 hPa 0,0 l/m² 0 min 0 min 0 W/m² 3,2 km/h (1 Bft) 97,87 %
12.02.2026 06:24 8,0 °C 7,2 °C 4,4 °C 99 % 973,9 hPa 0,0 l/m² 0 min 0 min 0 W/m² 6,4 km/h (2 Bft) 97,87 %
12.02.2026 06:26 8,1 °C 7,2 °C 4,4 °C 99 % 973,9 hPa 0,0 l/m² 0 min 0 min 0 W/m² 3,2 km/h (1 Bft) 100,00 %
12.02.2026 06:28 8,1 °C 7,2 °C 4,4 °C 99 % 973,9 hPa 0,0 l/m² 0 min 0 min 0 W/m² 3,2 km/h (1 Bft) 97,87 %
12.02.2026 06:30 8,0 °C 7,2 °C 4,4 °C 99 % 973,9 hPa 0,0 l/m² 0 min 0 min 0 W/m² 6,4 km/h (2 Bft) 100,00 %
12.02.2026 06:32 8,0 °C 7,2 °C 4,4 °C 99 % 973,9 hPa 0,0 l/m² 0 min 0 min 0 W/m² 6,4 km/h (2 Bft) 97,87 %
12.02.2026 06:34 8,0 °C 7,2 °C 4,4 °C 99 % 973,9 hPa 0,0 l/m² 0 min 0 min 0 W/m² 6,4 km/h (2 Bft) 95,74 %
12.02.2026 06:36 8,1 °C 7,2 °C 4,4 °C 99 % 973,9 hPa 0,0 l/m² 0 min 0 min 0 W/m² 6,4 km/h (2 Bft) 100,00 %
12.02.2026 06:38 8,0 °C 7,2 °C 4,4 °C 99 % 973,8 hPa 0,0 l/m² 0 min 0 min 0 W/m² 6,4 km/h (2 Bft) 97,22 %
12.02.2026 06:40 8,0 °C 7,2 °C 4,4 °C 99 % 973,8 hPa 0,0 l/m² 0 min 0 min 0 W/m² 3,2 km/h (1 Bft) 100,00 %
12.02.2026 06:42 8,0 °C 7,2 °C 4,4 °C 99 % 973,8 hPa 0,0 l/m² 0 min 0 min 0 W/m² 3,2 km/h (1 Bft) 97,87 %
12.02.2026 06:44 8,0 °C 7,2 °C 4,4 °C 99 % 973,8 hPa 0,0 l/m² 0 min 0 min 0 W/m² 12,9 km/h (3 Bft) 100,00 %
12.02.2026 06:46 8,0 °C 7,2 °C 4,4 °C 99 % 973,7 hPa 0,0 l/m² 0 min 0 min 0 W/m² 6,4 km/h (2 Bft) 100,00 %
12.02.2026 06:48 8,0 °C 7,2 °C 4,4 °C 99 % 973,8 hPa 0,0 l/m² 0 min 0 min 0 W/m² 3,2 km/h (1 Bft) 95,74 %
12.02.2026 06:50 8,0 °C 7,2 °C 4,4 °C 99 % 973,8 hPa 0,0 l/m² 0 min 0 min 0 W/m² 6,4 km/h (2 Bft) 41,94 %
12.02.2026 06:52 8,0 °C 7,2 °C 4,4 °C 99 % 973,9 hPa 0,0 l/m² 0 min 2 min 0 W/m² 0,0 km/h (0 Bft) 95,74 %
12.02.2026 06:54 8,0 °C 7,2 °C 4,4 °C 99 % 973,9 hPa 0,0 l/m² 0 min 0 min 0 W/m² 0,0 km/h (0 Bft) 97,87 %
12.02.2026 06:56 8,0 °C 7,2 °C 4,4 °C 99 % 973,9 hPa 0,0 l/m² 0 min 0 min 0 W/m² 0,0 km/h (0 Bft) 93,62 %
12.02.2026 06:58 8,0 °C 7,2 °C 4,4 °C 99 % 973,9 hPa 0,0 l/m² 0 min 0 min 0 W/m² 3,2 km/h (1 Bft) 93,62 %
12.02.2026 07:00 8,0 °C 7,2 °C 4,4 °C 99 % 973,9 hPa 0,0 l/m² 0 min 0 min 0 W/m² 0,0 km/h (0 Bft) 93,62 %
12.02.2026 07:02 8,0 °C 7,2 °C 4,4 °C 99 % 973,8 hPa 0,0 l/m² 0 min 0 min 0 W/m² 0,0 km/h (0 Bft) 95,74 %
12.02.2026 07:04 8,0 °C 7,2 °C 4,4 °C 99 % 973,9 hPa 0,0 l/m² 0 min 0 min 0 W/m² 0,0 km/h (0 Bft) 93,62 %
12.02.2026 07:06 8,0 °C 7,2 °C 4,4 °C 99 % 973,9 hPa 0,0 l/m² 0 min 0 min 0 W/m² 0,0 km/h (0 Bft) 93,22 %
12.02.2026 07:08 8,0 °C 7,2 °C 4,4 °C 99 % 973,9 hPa 0,0 l/m² 0 min 0 min 0 W/m² 0,0 km/h (0 Bft) 97,14 %
12.02.2026 07:10 8,0 °C 7,2 °C 4,4 °C 99 % 973,9 hPa 0,0 l/m² 0 min 0 min 0 W/m² 0,0 km/h (0 Bft) 93,62 %
12.02.2026 07:12 8,0 °C 7,2 °C 4,4 °C 99 % 973,9 hPa 0,0 l/m² 0 min 0 min 0 W/m² 0,0 km/h (0 Bft) 93,62 %
12.02.2026 07:14 8,0 °C 7,2 °C 4,4 °C 99 % 973,9 hPa 0,0 l/m² 0 min 0 min 0 W/m² 0,0 km/h (0 Bft) 95,74 %
12.02.2026 07:16 8,0 °C 7,2 °C 4,4 °C 99 % 973,9 hPa 0,0 l/m² 0 min 0 min 0 W/m² 0,0 km/h (0 Bft) 93,62 %
12.02.2026 07:18 8,0 °C 7,2 °C 4,4 °C 99 % 973,9 hPa 0,0 l/m² 0 min 0 min 0 W/m² 0,0 km/h (0 Bft) 93,62 %
12.02.2026 07:20 8,0 °C 7,2 °C 4,4 °C 99 % 973,9 hPa 0,0 l/m² 0 min 0 min 0 W/m² 0,0 km/h (0 Bft) 95,74 %
12.02.2026 07:22 8,0 °C 7,2 °C 4,4 °C 99 % 973,9 hPa 0,0 l/m² 0 min 0 min 0 W/m² 0,0 km/h (0 Bft) 95,74 %
12.02.2026 07:24 8,0 °C 7,2 °C 4,4 °C 99 % 974,0 hPa 0,0 l/m² 0 min 0 min 0 W/m² 0,0 km/h (0 Bft) 93,62 %
12.02.2026 07:26 8,0 °C 7,2 °C 4,4 °C 99 % 974,0 hPa 0,0 l/m² 0 min 0 min 0 W/m² 0,0 km/h (0 Bft) 95,74 %
12.02.2026 07:28 8,0 °C 7,2 °C 4,4 °C 99 % 974,1 hPa 0,0 l/m² 0 min 0 min 0 W/m² 0,0 km/h (0 Bft) 97,83 %
12.02.2026 07:30 8,0 °C 7,2 °C 4,4 °C 99 % 974,1 hPa 0,0 l/m² 0 min 0 min 0 W/m² 0,0 km/h (0 Bft) 95,74 %
12.02.2026 07:32 8,0 °C 7,2 °C 4,4 °C 99 % 974,0 hPa 0,0 l/m² 0 min 0 min 0 W/m² 0,0 km/h (0 Bft) 97,87 %
12.02.2026 07:34 8,0 °C 7,2 °C 4,4 °C 99 % 974,1 hPa 0,0 l/m² 0 min 0 min 0 W/m² 0,0 km/h (0 Bft) 93,62 %
12.02.2026 07:36 8,0 °C 7,2 °C 4,4 °C 99 % 974,1 hPa 0,0 l/m² 0 min 0 min 0 W/m² 0,0 km/h (0 Bft) 97,87 %
12.02.2026 07:38 8,0 °C 7,2 °C 4,4 °C 99 % 974,1 hPa 0,0 l/m² 0 min 0 min 0 W/m² 0,0 km/h (0 Bft) 97,87 %
12.02.2026 07:40 8,0 °C 7,2 °C 4,4 °C 99 % 974,2 hPa 0,0 l/m² 0 min 0 min 0 W/m² 0,0 km/h (0 Bft) 97,87 %
12.02.2026 07:42 8,0 °C 7,2 °C 4,4 °C 99 % 974,2 hPa 0,0 l/m² 0 min 0 min 0 W/m² 0,0 km/h (0 Bft) 100,00 %
12.02.2026 07:44 8,0 °C 7,2 °C 4,4 °C 99 % 974,2 hPa 0,0 l/m² 0 min 0 min 0 W/m² 0,0 km/h (0 Bft) 100,00 %
12.02.2026 07:46 8,0 °C 7,2 °C 4,4 °C 99 % 974,3 hPa 0,0 l/m² 0 min 0 min 0 W/m² 0,0 km/h (0 Bft) 100,00 %
12.02.2026 07:48 8,0 °C 7,2 °C 4,4 °C 99 % 974,3 hPa 0,0 l/m² 0 min 0 min 0 W/m² 0,0 km/h (0 Bft) 100,00 %
12.02.2026 07:50 8,0 °C 7,2 °C 4,4 °C 99 % 974,3 hPa 0,0 l/m² 0 min 2 min 0 W/m² 0,0 km/h (0 Bft) 97,87 %
12.02.2026 07:52 8,0 °C 7,2 °C 4,4 °C 99 % 974,3 hPa 0,2 l/m² 0 min 2 min 0 W/m² 0,0 km/h (0 Bft) 100,00 %
12.02.2026 07:54 8,0 °C 7,2 °C 4,4 °C 99 % 974,3 hPa 0,0 l/m² 0 min 0 min 0 W/m² 0,0 km/h (0 Bft) 100,00 %
12.02.2026 07:56 8,0 °C 7,2 °C 4,4 °C 99 % 974,3 hPa 0,2 l/m² 0 min 0 min 0 W/m² 0,0 km/h (0 Bft) 100,00 %
12.02.2026 07:58 8,0 °C 7,2 °C 4,4 °C 99 % 974,3 hPa 0,2 l/m² 0 min 0 min 0 W/m² 0,0 km/h (0 Bft) 100,00 %
12.02.2026 08:00 8,0 °C 7,2 °C 4,4 °C 99 % 974,4 hPa 0,0 l/m² 0 min 0 min 0 W/m² 0,0 km/h (0 Bft) 100,00 %
12.02.2026 08:02 7,9 °C 7,2 °C 4,4 °C 99 % 974,4 hPa 0,2 l/m² 0 min 0 min 0 W/m² 0,0 km/h (0 Bft) 97,87 %
12.02.2026 08:04 7,9 °C 7,2 °C 4,4 °C 99 % 974,4 hPa 0,0 l/m² 0 min 0 min 0 W/m² 0,0 km/h (0 Bft) 97,92 %
12.02.2026 08:06 7,9 °C 7,2 °C 4,4 °C 99 % 974,5 hPa 0,0 l/m² 0 min 0 min 0 W/m² 0,0 km/h (0 Bft) 98,31 %
12.02.2026 08:08 7,9 °C 7,2 °C 4,4 °C 99 % 974,5 hPa 0,2 l/m² 0 min 0 min 0 W/m² 0,0 km/h (0 Bft) 100,00 %
12.02.2026 08:10 7,9 °C 7,2 °C 4,4 °C 99 % 974,5 hPa 0,0 l/m² 0 min 0 min 0 W/m² 0,0 km/h (0 Bft) 100,00 %
12.02.2026 08:12 7,9 °C 7,2 °C 4,4 °C 99 % 974,5 hPa 0,2 l/m² 0 min 0 min 0 W/m² 0,0 km/h (0 Bft) 97,87 %
12.02.2026 08:14 7,9 °C 7,2 °C 4,4 °C 99 % 974,5 hPa 0,0 l/m² 0 min 0 min 0 W/m² 0,0 km/h (0 Bft) 100,00 %
12.02.2026 08:16 7,9 °C 7,2 °C 4,4 °C 99 % 974,6 hPa 0,0 l/m² 0 min 0 min 0 W/m² 0,0 km/h (0 Bft) 100,00 %
12.02.2026 08:18 7,9 °C 7,2 °C 4,4 °C 99 % 974,6 hPa 0,2 l/m² 0 min 0 min 0 W/m² 0,0 km/h (0 Bft) 97,87 %
12.02.2026 08:20 7,9 °C 7,2 °C 4,4 °C 99 % 974,6 hPa 0,2 l/m² 0 min 0 min 0 W/m² 0,0 km/h (0 Bft) 97,87 %
12.02.2026 08:22 7,9 °C 7,2 °C 4,4 °C 99 % 974,6 hPa 0,0 l/m² 0 min 0 min 0 W/m² 0,0 km/h (0 Bft) 95,74 %
12.02.2026 08:24 7,9 °C 7,2 °C 4,4 °C 99 % 974,6 hPa 0,2 l/m² 0 min 0 min 5 W/m² 0,0 km/h (0 Bft) 97,87 %
12.02.2026 08:26 7,9 °C 7,2 °C 4,4 °C 99 % 974,6 hPa 0,0 l/m² 0 min 0 min 5 W/m² 0,0 km/h (0 Bft) 97,87 %
12.02.2026 08:28 7,9 °C 7,2 °C 4,4 °C 99 % 974,7 hPa 0,0 l/m² 0 min 0 min 5 W/m² 0,0 km/h (0 Bft) 95,74 %
12.02.2026 08:30 8,0 °C 7,2 °C 4,4 °C 99 % 974,7 hPa 0,0 l/m² 0 min 0 min 7 W/m² 0,0 km/h (0 Bft) 97,87 %
12.02.2026 08:32 8,0 °C 7,2 °C 4,4 °C 99 % 974,6 hPa 0,0 l/m² 0 min 0 min 7 W/m² 0,0 km/h (0 Bft) 97,87 %
12.02.2026 08:34 8,0 °C 7,2 °C 4,4 °C 99 % 974,6 hPa 0,0 l/m² 0 min 0 min 7 W/m² 0,0 km/h (0 Bft) 95,74 %
12.02.2026 08:36 8,0 °C 7,2 °C 4,4 °C 99 % 974,7 hPa 0,2 l/m² 0 min 0 min 7 W/m² 0,0 km/h (0 Bft) 97,87 %
12.02.2026 08:38 8,0 °C 7,2 °C 4,4 °C 99 % 974,7 hPa 0,0 l/m² 0 min 0 min 7 W/m² 0,0 km/h (0 Bft) 97,83 %
12.02.2026 08:40 8,0 °C 7,2 °C 4,4 °C 99 % 974,7 hPa 0,0 l/m² 0 min 0 min 7 W/m² 0,0 km/h (0 Bft) 95,74 %
12.02.2026 08:42 8,0 °C 7,2 °C 4,4 °C 99 % 974,7 hPa 0,0 l/m² 0 min 0 min 8 W/m² 0,0 km/h (0 Bft) 95,74 %
12.02.2026 08:44 8,0 °C 7,2 °C 4,4 °C 99 % 974,7 hPa 0,2 l/m² 0 min 0 min 9 W/m² 0,0 km/h (0 Bft) 93,62 %
12.02.2026 08:46 8,0 °C 7,2 °C 4,4 °C 99 % 974,7 hPa 0,0 l/m² 0 min 0 min 9 W/m² 0,0 km/h (0 Bft) 95,74 %
12.02.2026 08:48 8,0 °C 7,2 °C 4,4 °C 99 % 974,7 hPa 0,0 l/m² 0 min 0 min 11 W/m² 0,0 km/h (0 Bft) 97,87 %
12.02.2026 08:50 8,0 °C 7,2 °C 4,4 °C 99 % 974,7 hPa 0,2 l/m² 0 min 0 min 12 W/m² 0,0 km/h (0 Bft) 95,74 %
12.02.2026 08:52 8,0 °C 7,2 °C 4,4 °C 99 % 974,8 hPa 0,0 l/m² 0 min 0 min 13 W/m² 0,0 km/h (0 Bft) 97,87 %
12.02.2026 08:54 8,0 °C 7,2 °C 4,4 °C 99 % 974,7 hPa 0,0 l/m² 0 min 0 min 15 W/m² 0,0 km/h (0 Bft) 95,74 %
12.02.2026 08:56 8,0 °C 7,2 °C 5,0 °C 99 % 974,8 hPa 0,0 l/m² 0 min 0 min 16 W/m² 0,0 km/h (0 Bft) 95,74 %
12.02.2026 08:58 8,0 °C 7,2 °C 5,0 °C 99 % 974,8 hPa 0,0 l/m² 0 min 0 min 18 W/m² 0,0 km/h (0 Bft) 95,65 %
12.02.2026 09:00 8,0 °C 7,2 °C 5,0 °C 99 % 974,9 hPa 0,0 l/m² 0 min 0 min 19 W/m² 0,0 km/h (0 Bft) 97,87 %
12.02.2026 09:02 8,1 °C 7,2 °C 5,0 °C 99 % 974,9 hPa 0,0 l/m² 0 min 0 min 21 W/m² 0,0 km/h (0 Bft) 97,87 %
12.02.2026 09:04 8,1 °C 7,2 °C 5,0 °C 99 % 975,0 hPa 0,0 l/m² 0 min 0 min 21 W/m² 0,0 km/h (0 Bft) 97,92 %
12.02.2026 09:06 8,1 °C 7,2 °C 5,0 °C 99 % 975,0 hPa 0,0 l/m² 0 min 0 min 19 W/m² 0,0 km/h (0 Bft) 97,87 %
12.02.2026 09:08 8,1 °C 7,2 °C 5,0 °C 99 % 975,1 hPa 0,0 l/m² 0 min 0 min 19 W/m² 0,0 km/h (0 Bft) 97,87 %
12.02.2026 09:10 8,1 °C 7,8 °C 5,0 °C 99 % 975,1 hPa 0,0 l/m² 0 min 2 min 18 W/m² 0,0 km/h (0 Bft) 97,87 %
12.02.2026 09:12 8,1 °C 7,8 °C 5,0 °C 99 % 975,1 hPa 0,2 l/m² 0 min 2 min 18 W/m² 0,0 km/h (0 Bft) 97,87 %
12.02.2026 09:14 8,2 °C 7,8 °C 5,0 °C 99 % 975,1 hPa 0,0 l/m² 0 min 0 min 20 W/m² 9,7 km/h (2 Bft) 95,74 %
12.02.2026 09:16 8,2 °C 7,2 °C 5,0 °C 99 % 975,2 hPa 0,0 l/m² 0 min 2 min 18 W/m² 6,4 km/h (2 Bft) 97,87 %
12.02.2026 09:18 8,2 °C 7,2 °C 5,0 °C 99 % 975,3 hPa 0,0 l/m² 0 min 2 min 19 W/m² 6,4 km/h (2 Bft) 97,87 %
12.02.2026 09:20 8,2 °C 7,2 °C 5,0 °C 99 % 975,3 hPa 0,0 l/m² 0 min 2 min 20 W/m² 6,4 km/h (2 Bft) 97,83 %
12.02.2026 09:22 8,2 °C 7,2 °C 5,0 °C 99 % 975,3 hPa 0,0 l/m² 0 min 0 min 22 W/m² 0,0 km/h (0 Bft) 97,87 %
12.02.2026 09:24 8,2 °C 7,2 °C 5,0 °C 99 % 975,3 hPa 0,2 l/m² 0 min 2 min 25 W/m² 3,2 km/h (1 Bft) 100,00 %
12.02.2026 09:26 8,2 °C 7,2 °C 5,0 °C 99 % 975,4 hPa 0,0 l/m² 0 min 2 min 25 W/m² 3,2 km/h (1 Bft) 100,00 %
12.02.2026 09:28 8,2 °C 7,2 °C 5,0 °C 99 % 975,4 hPa 0,0 l/m² 0 min 2 min 25 W/m² 3,2 km/h (1 Bft) 97,87 %
12.02.2026 09:30 8,2 °C 7,2 °C 5,0 °C 99 % 975,4 hPa 0,0 l/m² 0 min 2 min 25 W/m² 0,0 km/h (0 Bft) 97,87 %
12.02.2026 09:32 8,2 °C 7,2 °C 5,0 °C 99 % 975,4 hPa 0,0 l/m² 0 min 2 min 26 W/m² 6,4 km/h (2 Bft) 100,00 %
12.02.2026 09:34 8,2 °C 7,2 °C 5,0 °C 99 % 975,5 hPa 0,0 l/m² 0 min 2 min 31 W/m² 6,4 km/h (2 Bft) 97,83 %
12.02.2026 09:36 8,2 °C 7,2 °C 5,0 °C 99 % 975,5 hPa 0,2 l/m² 0 min 2 min 32 W/m² 12,9 km/h (3 Bft) 97,87 %
12.02.2026 09:38 8,2 °C 7,2 °C 5,0 °C 99 % 975,6 hPa 0,0 l/m² 0 min 0 min 32 W/m² 6,4 km/h (2 Bft) 97,87 %
12.02.2026 09:40 8,2 °C 7,2 °C 5,0 °C 99 % 975,6 hPa 0,0 l/m² 0 min 0 min 35 W/m² 9,7 km/h (2 Bft) 100,00 %
12.02.2026 09:42 8,2 °C 7,2 °C 5,0 °C 99 % 975,6 hPa 0,0 l/m² 0 min 0 min 37 W/m² 12,9 km/h (3 Bft) 97,87 %
12.02.2026 09:44 8,2 °C 7,2 °C 5,0 °C 99 % 975,7 hPa 0,0 l/m² 0 min 2 min 38 W/m² 3,2 km/h (1 Bft) 97,87 %
12.02.2026 09:46 8,2 °C 7,2 °C 5,0 °C 99 % 975,8 hPa 0,0 l/m² 0 min 2 min 37 W/m² 6,4 km/h (2 Bft) 95,74 %
12.02.2026 09:48 8,2 °C 7,8 °C 5,0 °C 99 % 975,8 hPa 0,0 l/m² 0 min 2 min 42 W/m² 6,4 km/h (2 Bft) 97,87 %
12.02.2026 09:50 8,2 °C 7,8 °C 5,0 °C 99 % 975,8 hPa 0,2 l/m² 0 min 2 min 44 W/m² 12,9 km/h (3 Bft) 93,62 %
12.02.2026 09:52 8,2 °C 7,8 °C 5,0 °C 99 % 975,9 hPa 0,0 l/m² 0 min 2 min 44 W/m² 9,7 km/h (2 Bft) 97,87 %
12.02.2026 09:54 8,2 °C 7,8 °C 5,0 °C 99 % 976,0 hPa 0,0 l/m² 0 min 2 min 50 W/m² 6,4 km/h (2 Bft) 91,49 %
12.02.2026 09:56 8,2 °C 7,8 °C 5,0 °C 99 % 976,0 hPa 0,0 l/m² 0 min 2 min 55 W/m² 9,7 km/h (2 Bft) 95,65 %
12.02.2026 09:58 8,2 °C 7,8 °C 5,0 °C 99 % 976,1 hPa 0,0 l/m² 0 min 2 min 55 W/m² 9,7 km/h (2 Bft) 97,87 %
12.02.2026 10:00 8,2 °C 7,8 °C 5,0 °C 99 % 976,1 hPa 0,0 l/m² 0 min 0 min 54 W/m² 6,4 km/h (2 Bft) 95,74 %
12.02.2026 10:02 8,2 °C 7,8 °C 5,0 °C 99 % 976,2 hPa 0,0 l/m² 0 min 2 min 54 W/m² 12,9 km/h (3 Bft) 91,49 %
12.02.2026 10:04 8,2 °C 7,8 °C 5,0 °C 99 % 976,3 hPa 0,2 l/m² 0 min 2 min 54 W/m² 12,9 km/h (3 Bft) 97,87 %
12.02.2026 10:06 8,3 °C 7,8 °C 5,0 °C 99 % 976,3 hPa 0,0 l/m² 0 min 2 min 54 W/m² 9,7 km/h (2 Bft) 97,87 %
12.02.2026 10:08 8,3 °C 7,8 °C 5,0 °C 99 % 976,4 hPa 0,0 l/m² 0 min 2 min 56 W/m² 12,9 km/h (3 Bft) 97,87 %
12.02.2026 10:10 8,3 °C 7,8 °C 5,0 °C 99 % 976,3 hPa 0,0 l/m² 0 min 2 min 54 W/m² 16,1 km/h (3 Bft) 97,87 %
12.02.2026 10:12 8,3 °C 7,8 °C 5,0 °C 99 % 976,4 hPa 0,0 l/m² 0 min 2 min 42 W/m² 12,9 km/h (3 Bft) 97,87 %
12.02.2026 10:14 8,3 °C 7,8 °C 5,0 °C 99 % 976,4 hPa 0,0 l/m² 0 min 2 min 32 W/m² 12,9 km/h (3 Bft) 97,87 %
12.02.2026 10:16 8,3 °C 7,8 °C 5,0 °C 99 % 976,5 hPa 0,2 l/m² 0 min 2 min 31 W/m² 22,5 km/h (4 Bft) 97,87 %
12.02.2026 10:18 8,2 °C 7,8 °C 5,0 °C 99 % 976,6 hPa 0,0 l/m² 0 min 2 min 35 W/m² 19,3 km/h (3 Bft) 97,83 %
12.02.2026 10:20 8,2 °C 7,8 °C 5,0 °C 99 % 976,6 hPa 0,0 l/m² 0 min 2 min 38 W/m² 16,1 km/h (3 Bft) 95,74 %
12.02.2026 10:22 8,2 °C 7,8 °C 5,0 °C 99 % 976,7 hPa 0,0 l/m² 0 min 2 min 43 W/m² 19,3 km/h (3 Bft) 97,87 %
12.02.2026 10:24 8,2 °C 7,8 °C 5,0 °C 99 % 976,7 hPa 0,0 l/m² 0 min 0 min 51 W/m² 12,9 km/h (3 Bft) 97,87 %
12.02.2026 10:26 8,2 °C 7,8 °C 5,0 °C 99 % 976,7 hPa 0,0 l/m² 0 min 2 min 60 W/m² 12,9 km/h (3 Bft) 97,87 %
12.02.2026 10:28 8,2 °C 7,8 °C 5,0 °C 99 % 976,8 hPa 0,0 l/m² 0 min 2 min 61 W/m² 22,5 km/h (4 Bft) 97,87 %
12.02.2026 10:30 8,2 °C 7,8 °C 5,0 °C 99 % 976,8 hPa 0,0 l/m² 0 min 0 min 55 W/m² 12,9 km/h (3 Bft) 97,87 %
12.02.2026 10:32 8,2 °C 7,8 °C 5,0 °C 99 % 976,9 hPa 0,0 l/m² 0 min 2 min 51 W/m² 19,3 km/h (3 Bft) 100,00 %
12.02.2026 10:34 8,2 °C 7,8 °C 5,0 °C 99 % 976,9 hPa 0,0 l/m² 0 min 0 min 53 W/m² 12,9 km/h (3 Bft) 100,00 %
12.02.2026 10:36 8,2 °C 7,8 °C 5,0 °C 99 % 977,0 hPa 0,0 l/m² 0 min 0 min 55 W/m² 16,1 km/h (3 Bft) 95,74 %
12.02.2026 10:38 8,2 °C 7,8 °C 5,0 °C 99 % 977,1 hPa 0,0 l/m² 0 min 0 min 54 W/m² 16,1 km/h (3 Bft) 95,83 %
12.02.2026 10:40 8,2 °C 7,8 °C 5,0 °C 99 % 977,1 hPa 0,0 l/m² 0 min 0 min 45 W/m² 16,1 km/h (3 Bft) 97,87 %
12.02.2026 10:42 8,2 °C 7,8 °C 5,0 °C 99 % 977,2 hPa 0,0 l/m² 0 min 0 min 34 W/m² 12,9 km/h (3 Bft) 100,00 %
12.02.2026 10:44 8,1 °C 7,8 °C 5,0 °C 99 % 977,2 hPa 0,0 l/m² 0 min 2 min 37 W/m² 22,5 km/h (4 Bft) 100,00 %
12.02.2026 10:46 8,1 °C 7,8 °C 5,0 °C 99 % 977,3 hPa 0,2 l/m² 0 min 2 min 46 W/m² 22,5 km/h (4 Bft) 95,74 %
12.02.2026 10:48 8,1 °C 7,8 °C 5,0 °C 99 % 977,3 hPa 0,0 l/m² 0 min 2 min 56 W/m² 29,0 km/h (5 Bft) 97,87 %
12.02.2026 10:50 8,1 °C 7,2 °C 5,0 °C 99 % 977,4 hPa 0,0 l/m² 0 min 2 min 66 W/m² 19,3 km/h (3 Bft) 95,74 %
12.02.2026 10:52 8,1 °C 7,2 °C 5,0 °C 99 % 977,5 hPa 0,0 l/m² 0 min 2 min 56 W/m² 29,0 km/h (5 Bft) 95,65 %
12.02.2026 10:54 8,1 °C 7,2 °C 5,0 °C 99 % 977,6 hPa 0,0 l/m² 0 min 2 min 56 W/m² 22,5 km/h (4 Bft) 97,96 %
12.02.2026 10:56 8,1 °C 7,8 °C 5,0 °C 99 % 977,7 hPa 0,0 l/m² 0 min 2 min 63 W/m² 19,3 km/h (3 Bft) 95,74 %
12.02.2026 10:58 8,1 °C 7,8 °C 5,0 °C 99 % 977,7 hPa 0,0 l/m² 0 min 2 min 60 W/m² 29,0 km/h (5 Bft) 93,62 %
12.02.2026 11:00 8,1 °C 7,2 °C 5,0 °C 99 % 977,8 hPa 0,0 l/m² 0 min 2 min 46 W/m² 16,1 km/h (3 Bft) 93,62 %
12.02.2026 11:02 8,1 °C 7,2 °C 5,0 °C 99 % 977,8 hPa 0,0 l/m² 0 min 0 min 40 W/m² 22,5 km/h (4 Bft) 95,65 %
12.02.2026 11:04 8,1 °C 7,2 °C 5,0 °C 99 % 977,9 hPa 0,0 l/m² 0 min 2 min 40 W/m² 16,1 km/h (3 Bft) 94,74 %
12.02.2026 11:06 8,0 °C 7,2 °C 5,0 °C 99 % 978,0 hPa 0,0 l/m² 0 min 0 min 39 W/m² 19,3 km/h (3 Bft) 96,61 %
12.02.2026 11:08 8,0 °C 7,2 °C 5,0 °C 99 % 978,1 hPa 0,0 l/m² 0 min 0 min 37 W/m² 19,3 km/h (3 Bft) 94,29 %
12.02.2026 11:10 7,9 °C 7,2 °C 5,0 °C 99 % 978,1 hPa 0,0 l/m² 0 min 2 min 31 W/m² 16,1 km/h (3 Bft) 95,74 %
12.02.2026 11:12 7,9 °C 7,2 °C 5,0 °C 99 % 978,2 hPa 0,0 l/m² 0 min 2 min 33 W/m² 16,1 km/h (3 Bft) 95,74 %
12.02.2026 11:14 7,9 °C 7,2 °C 5,0 °C 99 % 978,3 hPa 0,0 l/m² 0 min 0 min 36 W/m² 19,3 km/h (3 Bft) 93,62 %
12.02.2026 11:16 7,9 °C 7,2 °C 5,0 °C 99 % 978,3 hPa 0,2 l/m² 0 min 0 min 40 W/m² 35,4 km/h (5 Bft) 95,74 %
12.02.2026 11:18 7,9 °C 7,2 °C 5,0 °C 99 % 978,4 hPa 0,0 l/m² 0 min 0 min 42 W/m² 32,2 km/h (5 Bft) 93,48 %
12.02.2026 11:20 7,9 °C 7,2 °C 5,0 °C 99 % 978,5 hPa 0,0 l/m² 0 min 0 min 41 W/m² 22,5 km/h (4 Bft) 91,49 %
12.02.2026 11:22 7,9 °C 7,2 °C 5,0 °C 99 % 978,5 hPa 0,0 l/m² 0 min 0 min 54 W/m² 22,5 km/h (4 Bft) 97,87 %
12.02.2026 11:24 7,9 °C 7,2 °C 5,0 °C 99 % 978,6 hPa 0,0 l/m² 0 min 0 min 76 W/m² 19,3 km/h (3 Bft) 95,74 %
12.02.2026 11:26 7,9 °C 7,2 °C 5,0 °C 99 % 978,6 hPa 0,0 l/m² 0 min 0 min 74 W/m² 16,1 km/h (3 Bft) 97,87 %
12.02.2026 11:28 7,9 °C 7,2 °C 5,0 °C 99 % 978,7 hPa 0,0 l/m² 0 min 0 min 64 W/m² 19,3 km/h (3 Bft) 93,62 %
12.02.2026 11:30 7,9 °C 7,2 °C 5,0 °C 99 % 978,8 hPa 0,0 l/m² 0 min 0 min 54 W/m² 16,1 km/h (3 Bft) 93,62 %
12.02.2026 11:32 7,9 °C 7,2 °C 5,0 °C 99 % 978,8 hPa 0,0 l/m² 0 min 0 min 61 W/m² 12,9 km/h (3 Bft) 95,74 %
12.02.2026 11:34 7,9 °C 7,8 °C 5,0 °C 99 % 978,9 hPa 0,0 l/m² 0 min 0 min 83 W/m² 12,9 km/h (3 Bft) 95,74 %
12.02.2026 11:36 8,0 °C 7,8 °C 5,0 °C 99 % 978,9 hPa 0,0 l/m² 0 min 0 min 83 W/m² 19,3 km/h (3 Bft) 97,87 %
12.02.2026 11:38 8,0 °C 7,8 °C 5,0 °C 99 % 979,0 hPa 0,0 l/m² 0 min 0 min 72 W/m² 19,3 km/h (3 Bft) 97,87 %
12.02.2026 11:40 8,1 °C 7,8 °C 5,0 °C 99 % 979,0 hPa 0,0 l/m² 0 min 0 min 67 W/m² 25,7 km/h (4 Bft) 97,87 %
12.02.2026 11:42 8,0 °C 7,8 °C 5,0 °C 99 % 979,1 hPa 0,0 l/m² 0 min 0 min 72 W/m² 19,3 km/h (3 Bft) 100,00 %
12.02.2026 11:44 8,1 °C 7,8 °C 5,0 °C 99 % 979,1 hPa 0,0 l/m² 0 min 0 min 60 W/m² 25,7 km/h (4 Bft) 97,83 %
12.02.2026 11:46 8,1 °C 7,8 °C 5,0 °C 99 % 979,2 hPa 0,0 l/m² 0 min 0 min 44 W/m² 22,5 km/h (4 Bft) 100,00 %
12.02.2026 11:48 8,1 °C 7,8 °C 5,0 °C 99 % 979,2 hPa 0,0 l/m² 0 min 0 min 61 W/m² 22,5 km/h (4 Bft) 100,00 %
12.02.2026 11:50 8,1 °C 7,8 °C 5,0 °C 99 % 979,2 hPa 0,0 l/m² 0 min 0 min 75 W/m² 32,2 km/h (5 Bft) 97,87 %
12.02.2026 11:52 8,0 °C 7,8 °C 5,0 °C 99 % 979,3 hPa 0,0 l/m² 0 min 0 min 76 W/m² 25,7 km/h (4 Bft) 100,00 %
12.02.2026 11:54 8,0 °C 7,8 °C 5,0 °C 99 % 979,4 hPa 0,0 l/m² 0 min 0 min 80 W/m² 19,3 km/h (3 Bft) 100,00 %
12.02.2026 11:56 8,1 °C 7,8 °C 5,0 °C 99 % 979,4 hPa 0,0 l/m² 0 min 0 min 81 W/m² 19,3 km/h (3 Bft) 97,87 %
12.02.2026 11:58 8,1 °C 7,8 °C 5,0 °C 99 % 979,5 hPa 0,0 l/m² 0 min 0 min 65 W/m² 25,7 km/h (4 Bft) 100,00 %
12.02.2026 12:00 8,1 °C 7,8 °C 5,0 °C 99 % 979,5 hPa 0,0 l/m² 0 min 0 min 76 W/m² 19,3 km/h (3 Bft) 97,87 %
12.02.2026 12:02 8,1 °C 7,8 °C 5,0 °C 99 % 979,5 hPa 0,0 l/m² 0 min 0 min 84 W/m² 25,7 km/h (4 Bft) 100,00 %
12.02.2026 12:04 8,1 °C 7,8 °C 5,0 °C 99 % 979,6 hPa 0,0 l/m² 0 min 0 min 90 W/m² 16,1 km/h (3 Bft) 100,00 %
12.02.2026 12:07 8,1 °C 7,8 °C 5,0 °C 99 % 979,7 hPa 0,0 l/m² 0 min 0 min 116 W/m² 19,3 km/h (3 Bft) 100,00 %
12.02.2026 12:08 8,1 °C 7,8 °C 5,0 °C 99 % 979,7 hPa 0,0 l/m² 0 min 0 min 162 W/m² 16,1 km/h (3 Bft) 100,00 %
12.02.2026 12:12 8,1 °C 8,3 °C 5,0 °C 99 % 979,8 hPa 0,0 l/m² 0 min 0 min 198 W/m² 12,9 km/h (3 Bft) 100,00 %
12.02.2026 12:14 8,2 °C 8,9 °C 5,6 °C 99 % 979,9 hPa 0,0 l/m² 0 min 0 min 206 W/m² 22,5 km/h (4 Bft) 93,62 %
12.02.2026 12:16 8,2 °C 8,9 °C 5,6 °C 100 % 979,9 hPa 0,0 l/m² 0 min 0 min 170 W/m² 16,1 km/h (3 Bft) 100,00 %
12.02.2026 12:18 8,3 °C 8,3 °C 5,6 °C 100 % 979,9 hPa 0,0 l/m² 0 min 0 min 149 W/m² 19,3 km/h (3 Bft) 100,00 %
12.02.2026 12:20 8,3 °C 8,3 °C 5,0 °C 99 % 980,0 hPa 0,0 l/m² 0 min 0 min 120 W/m² 19,3 km/h (3 Bft) 100,00 %
12.02.2026 12:22 8,3 °C 8,3 °C 5,0 °C 99 % 980,0 hPa 0,0 l/m² 0 min 0 min 97 W/m² 19,3 km/h (3 Bft) 100,00 %
12.02.2026 12:24 8,3 °C 8,3 °C 5,0 °C 99 % 980,2 hPa 0,0 l/m² 0 min 0 min 81 W/m² 19,3 km/h (3 Bft) 100,00 %
12.02.2026 12:26 8,3 °C 8,3 °C 5,0 °C 99 % 980,2 hPa 0,0 l/m² 0 min 0 min 86 W/m² 16,1 km/h (3 Bft) 100,00 %
12.02.2026 12:28 8,3 °C 8,3 °C 5,0 °C 99 % 980,2 hPa 0,0 l/m² 0 min 0 min 92 W/m² 29,0 km/h (5 Bft) 100,00 %
12.02.2026 12:30 8,3 °C 8,3 °C 5,0 °C 99 % 980,3 hPa 0,0 l/m² 0 min 0 min 101 W/m² 19,3 km/h (3 Bft) 97,87 %
12.02.2026 12:32 8,3 °C 8,3 °C 5,0 °C 99 % 980,3 hPa 0,0 l/m² 0 min 0 min 104 W/m² 16,1 km/h (3 Bft) 97,87 %
12.02.2026 12:34 8,3 °C 8,3 °C 5,0 °C 99 % 980,4 hPa 0,0 l/m² 0 min 0 min 96 W/m² 12,9 km/h (3 Bft) 100,00 %
12.02.2026 12:36 8,3 °C 8,3 °C 5,0 °C 99 % 980,4 hPa 0,0 l/m² 0 min 0 min 93 W/m² 19,3 km/h (3 Bft) 100,00 %
12.02.2026 12:38 8,4 °C 8,3 °C 5,0 °C 99 % 980,4 hPa 0,0 l/m² 0 min 0 min 103 W/m² 22,5 km/h (4 Bft) 97,87 %
12.02.2026 12:40 8,4 °C 8,3 °C 5,0 °C 99 % 980,5 hPa 0,0 l/m² 0 min 0 min 111 W/m² 16,1 km/h (3 Bft) 93,62 %
12.02.2026 12:42 8,4 °C 8,3 °C 5,0 °C 99 % 980,5 hPa 0,0 l/m² 0 min 0 min 115 W/m² 22,5 km/h (4 Bft) 93,62 %
12.02.2026 12:44 8,4 °C 8,3 °C 5,0 °C 99 % 980,6 hPa 0,0 l/m² 0 min 0 min 113 W/m² 22,5 km/h (4 Bft) 96,00 %
12.02.2026 12:46 8,4 °C 8,3 °C 5,0 °C 99 % 980,6 hPa 0,0 l/m² 0 min 0 min 106 W/m² 16,1 km/h (3 Bft) 93,62 %
12.02.2026 12:48 8,4 °C 8,3 °C 5,0 °C 99 % 980,6 hPa 0,0 l/m² 0 min 0 min 106 W/m² 22,5 km/h (4 Bft) 95,74 %
12.02.2026 12:50 8,4 °C 8,3 °C 5,0 °C 99 % 980,6 hPa 0,0 l/m² 0 min 0 min 108 W/m² 19,3 km/h (3 Bft) 95,74 %
12.02.2026 12:52 8,5 °C 8,3 °C 5,6 °C 99 % 980,7 hPa 0,0 l/m² 0 min 0 min 100 W/m² 9,7 km/h (2 Bft) 91,49 %
12.02.2026 12:54 8,6 °C 8,3 °C 5,6 °C 99 % 980,7 hPa 0,0 l/m² 0 min 0 min 100 W/m² 16,1 km/h (3 Bft) 93,62 %
12.02.2026 12:56 8,6 °C 8,3 °C 5,6 °C 99 % 980,8 hPa 0,0 l/m² 0 min 0 min 78 W/m² 19,3 km/h (3 Bft) 91,49 %
12.02.2026 12:58 8,6 °C 8,3 °C 5,6 °C 99 % 980,9 hPa 0,0 l/m² 0 min 0 min 71 W/m² 12,9 km/h (3 Bft) 93,48 %
12.02.2026 13:00 8,6 °C 8,3 °C 5,6 °C 99 % 981,0 hPa 0,0 l/m² 0 min 0 min 66 W/m² 19,3 km/h (3 Bft) 95,74 %
12.02.2026 13:02 8,6 °C 8,3 °C 5,6 °C 99 % 980,9 hPa 0,0 l/m² 0 min 0 min 91 W/m² 19,3 km/h (3 Bft) 93,62 %
12.02.2026 13:04 8,6 °C 8,3 °C 5,6 °C 99 % 980,9 hPa 0,0 l/m² 0 min 0 min 89 W/m² 16,1 km/h (3 Bft) 95,74 %
12.02.2026 13:06 8,7 °C 8,3 °C 5,6 °C 99 % 981,0 hPa 0,0 l/m² 0 min 0 min 77 W/m² 12,9 km/h (3 Bft) 91,49 %
12.02.2026 13:08 8,7 °C 8,3 °C 5,6 °C 99 % 981,1 hPa 0,0 l/m² 0 min 0 min 69 W/m² 16,1 km/h (3 Bft) 95,83 %
12.02.2026 13:10 8,7 °C 8,3 °C 5,6 °C 99 % 981,1 hPa 0,0 l/m² 0 min 0 min 71 W/m² 16,1 km/h (3 Bft) 95,74 %
12.02.2026 13:12 8,7 °C 8,3 °C 5,6 °C 99 % 981,1 hPa 0,0 l/m² 0 min 0 min 82 W/m² 12,9 km/h (3 Bft) 93,62 %
12.02.2026 13:14 8,7 °C 8,3 °C 5,6 °C 99 % 981,1 hPa 0,0 l/m² 0 min 0 min 97 W/m² 16,1 km/h (3 Bft) 97,87 %
12.02.2026 13:16 8,7 °C 8,3 °C 5,6 °C 99 % 981,1 hPa 0,0 l/m² 0 min 0 min 95 W/m² 19,3 km/h (3 Bft) 97,87 %
12.02.2026 13:18 8,7 °C 8,3 °C 5,6 °C 99 % 981,2 hPa 0,0 l/m² 0 min 0 min 93 W/m² 19,3 km/h (3 Bft) 95,65 %
12.02.2026 13:20 8,7 °C 8,3 °C 5,6 °C 99 % 981,2 hPa 0,0 l/m² 0 min 0 min 73 W/m² 16,1 km/h (3 Bft) 97,87 %
12.02.2026 13:22 8,7 °C 8,3 °C 5,6 °C 99 % 981,2 hPa 0,0 l/m² 0 min 0 min 57 W/m² 9,7 km/h (2 Bft) 97,87 %
12.02.2026 13:24 8,7 °C 8,3 °C 5,0 °C 99 % 981,3 hPa 0,0 l/m² 0 min 0 min 48 W/m² 19,3 km/h (3 Bft) 97,87 %
12.02.2026 13:26 8,7 °C 8,3 °C 5,0 °C 99 % 981,2 hPa 0,0 l/m² 0 min 0 min 50 W/m² 16,1 km/h (3 Bft) 95,74 %
12.02.2026 13:28 8,7 °C 8,3 °C 5,0 °C 98 % 981,2 hPa 0,0 l/m² 0 min 0 min 71 W/m² 12,9 km/h (3 Bft) 97,87 %
12.02.2026 13:30 8,8 °C 8,3 °C 5,6 °C 98 % 981,3 hPa 0,0 l/m² 0 min 0 min 114 W/m² 12,9 km/h (3 Bft) 100,00 %
12.02.2026 13:32 8,8 °C 8,3 °C 5,6 °C 98 % 981,3 hPa 0,0 l/m² 0 min 0 min 135 W/m² 16,1 km/h (3 Bft) 100,00 %
12.02.2026 13:34 8,8 °C 8,3 °C 5,6 °C 98 % 981,3 hPa 0,0 l/m² 0 min 0 min 106 W/m² 16,1 km/h (3 Bft) 100,00 %
12.02.2026 13:36 8,8 °C 8,3 °C 5,6 °C 98 % 981,4 hPa 0,0 l/m² 0 min 0 min 69 W/m² 9,7 km/h (2 Bft) 95,74 %
12.02.2026 13:38 8,8 °C 8,3 °C 5,6 °C 98 % 981,3 hPa 0,0 l/m² 0 min 0 min 68 W/m² 9,7 km/h (2 Bft) 95,74 %
12.02.2026 13:40 8,9 °C 8,3 °C 5,6 °C 98 % 981,3 hPa 0,0 l/m² 0 min 0 min 68 W/m² 12,9 km/h (3 Bft) 95,74 %
12.02.2026 13:42 8,9 °C 8,3 °C 5,6 °C 98 % 981,4 hPa 0,0 l/m² 0 min 0 min 61 W/m² 12,9 km/h (3 Bft) 97,87 %
12.02.2026 13:44 8,9 °C 8,3 °C 5,6 °C 98 % 981,4 hPa 0,0 l/m² 0 min 0 min 44 W/m² 9,7 km/h (2 Bft) 97,83 %
12.02.2026 13:46 8,9 °C 8,3 °C 5,6 °C 98 % 981,4 hPa 0,0 l/m² 0 min 2 min 27 W/m² 9,7 km/h (2 Bft) 95,74 %
12.02.2026 13:48 8,9 °C 8,3 °C 5,6 °C 98 % 981,5 hPa 0,0 l/m² 0 min 0 min 28 W/m² 9,7 km/h (2 Bft) 97,87 %
12.02.2026 13:50 8,9 °C 8,3 °C 5,6 °C 98 % 981,5 hPa 0,0 l/m² 0 min 0 min 36 W/m² 9,7 km/h (2 Bft) 97,87 %
12.02.2026 13:52 8,9 °C 8,3 °C 5,0 °C 98 % 981,4 hPa 0,0 l/m² 0 min 2 min 50 W/m² 19,3 km/h (3 Bft) 97,87 %
12.02.2026 13:54 8,9 °C 8,3 °C 5,6 °C 98 % 981,5 hPa 0,0 l/m² 0 min 0 min 66 W/m² 12,9 km/h (3 Bft) 95,74 %
12.02.2026 13:56 8,9 °C 8,3 °C 5,6 °C 98 % 981,5 hPa 0,0 l/m² 0 min 0 min 91 W/m² 12,9 km/h (3 Bft) 97,87 %
12.02.2026 13:58 8,9 °C 8,3 °C 5,6 °C 98 % 981,6 hPa 0,0 l/m² 0 min 0 min 106 W/m² 9,7 km/h (2 Bft) 97,87 %
12.02.2026 14:00 8,9 °C 8,9 °C 5,6 °C 98 % 981,6 hPa 0,0 l/m² 0 min 0 min 147 W/m² 12,9 km/h (3 Bft) 97,87 %
12.02.2026 14:02 9,0 °C 8,9 °C 5,6 °C 98 % 981,7 hPa 0,0 l/m² 0 min 0 min 172 W/m² 12,9 km/h (3 Bft) 95,74 %
12.02.2026 14:04 9,1 °C 9,4 °C 5,6 °C 98 % 981,6 hPa 0,0 l/m² 0 min 0 min 173 W/m² 12,9 km/h (3 Bft) 97,87 %
12.02.2026 14:06 9,1 °C 9,4 °C 5,6 °C 97 % 981,6 hPa 0,0 l/m² 0 min 0 min 182 W/m² 12,9 km/h (3 Bft) 97,87 %
12.02.2026 14:08 9,2 °C 9,4 °C 5,6 °C 97 % 981,7 hPa 0,0 l/m² 0 min 0 min 154 W/m² 19,3 km/h (3 Bft) 97,87 %
12.02.2026 14:10 9,2 °C 9,4 °C 5,6 °C 98 % 981,7 hPa 0,0 l/m² 0 min 0 min 151 W/m² 12,9 km/h (3 Bft) 95,65 %
12.02.2026 14:12 9,2 °C 9,4 °C 5,6 °C 98 % 981,7 hPa 0,0 l/m² 0 min 0 min 150 W/m² 9,7 km/h (2 Bft) 41,18 %
12.02.2026 14:14 9,3 °C 10,0 °C 5,6 °C 98 % 981,7 hPa 0,0 l/m² 2 min 0 min 194 W/m² 16,1 km/h (3 Bft) 97,67 %
12.02.2026 14:16 9,4 °C 10,6 °C 6,1 °C 97 % 981,8 hPa 0,0 l/m² 2 min 0 min 260 W/m² 16,1 km/h (3 Bft) 97,87 %
12.02.2026 14:18 9,5 °C 11,7 °C 6,1 °C 97 % 981,8 hPa 0,0 l/m² 2 min 0 min 287 W/m² 16,1 km/h (3 Bft) 97,87 %
12.02.2026 14:20 9,6 °C 11,1 °C 6,1 °C 97 % 981,8 hPa 0,0 l/m² 2 min 0 min 247 W/m² 16,1 km/h (3 Bft) 89,36 %
12.02.2026 14:22 9,7 °C 10,6 °C 6,1 °C 97 % 981,9 hPa 0,0 l/m² 2 min 0 min 214 W/m² 12,9 km/h (3 Bft) 100,00 %
12.02.2026 14:24 9,7 °C 10,6 °C 6,1 °C 97 % 981,8 hPa 0,0 l/m² 0 min 0 min 163 W/m² 12,9 km/h (3 Bft) 95,74 %
12.02.2026 14:26 9,8 °C 10,6 °C 6,1 °C 97 % 981,9 hPa 0,0 l/m² 2 min 0 min 222 W/m² 16,1 km/h (3 Bft) 100,00 %
12.02.2026 14:28 9,8 °C 11,7 °C 6,1 °C 97 % 982,0 hPa 0,0 l/m² 2 min 0 min 264 W/m² 16,1 km/h (3 Bft) 100,00 %
12.02.2026 14:30 9,9 °C 11,1 °C 6,1 °C 97 % 982,0 hPa 0,0 l/m² 2 min 0 min 199 W/m² 12,9 km/h (3 Bft) 100,00 %
12.02.2026 14:32 9,9 °C 11,1 °C 6,1 °C 97 % 982,1 hPa 0,0 l/m² 2 min 0 min 220 W/m² 12,9 km/h (3 Bft) 97,83 %
12.02.2026 14:34 9,9 °C 10,6 °C 6,1 °C 96 % 982,0 hPa 0,0 l/m² 2 min 0 min 201 W/m² 19,3 km/h (3 Bft) 97,87 %
12.02.2026 14:36 9,9 °C 11,1 °C 6,1 °C 96 % 982,1 hPa 0,0 l/m² 2 min 0 min 240 W/m² 16,1 km/h (3 Bft) 97,44 %
12.02.2026 14:38 10,0 °C 11,7 °C 6,7 °C 96 % 982,1 hPa 0,0 l/m² 2 min 0 min 453 W/m² 25,7 km/h (4 Bft) 97,83 %
12.02.2026 14:40 10,1 °C 12,8 °C 6,7 °C 96 % 982,2 hPa 0,0 l/m² 2 min 0 min 489 W/m² 19,3 km/h (3 Bft) 97,87 %
12.02.2026 14:42 10,2 °C 12,8 °C 6,7 °C 96 % 982,3 hPa 0,0 l/m² 2 min 0 min 344 W/m² 12,9 km/h (3 Bft) 97,87 %
12.02.2026 14:44 10,2 °C 12,2 °C 6,7 °C 96 % 982,3 hPa 0,0 l/m² 0 min 0 min 152 W/m² 16,1 km/h (3 Bft) 97,87 %
12.02.2026 14:46 10,3 °C 11,7 °C 6,7 °C 95 % 982,3 hPa 0,0 l/m² 2 min 0 min 182 W/m² 22,5 km/h (4 Bft) 97,87 %
12.02.2026 14:48 10,2 °C 11,7 °C 6,7 °C 95 % 982,3 hPa 0,0 l/m² 2 min 0 min 241 W/m² 16,1 km/h (3 Bft) 97,87 %
12.02.2026 14:50 10,3 °C 11,1 °C 6,7 °C 95 % 982,4 hPa 0,0 l/m² 2 min 0 min 199 W/m² 16,1 km/h (3 Bft) 97,87 %
12.02.2026 14:52 10,2 °C 10,6 °C 6,7 °C 95 % 982,4 hPa 0,0 l/m² 0 min 0 min 158 W/m² 12,9 km/h (3 Bft) 95,74 %
12.02.2026 14:54 10,3 °C 10,6 °C 6,7 °C 94 % 982,5 hPa 0,0 l/m² 0 min 0 min 146 W/m² 9,7 km/h (2 Bft) 97,87 %
12.02.2026 14:56 10,3 °C 10,6 °C 6,7 °C 94 % 982,5 hPa 0,0 l/m² 0 min 0 min 133 W/m² 6,4 km/h (2 Bft) 97,87 %
12.02.2026 14:58 10,2 °C 10,6 °C 6,7 °C 94 % 982,5 hPa 0,0 l/m² 0 min 0 min 108 W/m² 12,9 km/h (3 Bft) 97,87 %
12.02.2026 15:00 10,2 °C 10,6 °C 6,7 °C 94 % 982,6 hPa 0,0 l/m² 0 min 0 min 108 W/m² 12,9 km/h (3 Bft) 97,83 %
12.02.2026 15:02 10,2 °C 10,0 °C 6,7 °C 94 % 982,6 hPa 0,0 l/m² 0 min 0 min 114 W/m² 9,7 km/h (2 Bft) 93,62 %
12.02.2026 15:04 10,2 °C 10,0 °C 6,7 °C 94 % 982,6 hPa 0,0 l/m² 0 min 0 min 108 W/m² 12,9 km/h (3 Bft) 97,87 %
12.02.2026 15:06 10,2 °C 10,0 °C 6,7 °C 94 % 982,7 hPa 0,0 l/m² 0 min 0 min 109 W/m² 9,7 km/h (2 Bft) 98,31 %
12.02.2026 15:08 10,2 °C 10,0 °C 6,7 °C 94 % 982,7 hPa 0,0 l/m² 0 min 0 min 92 W/m² 6,4 km/h (2 Bft) 97,22 %
12.02.2026 15:10 10,2 °C 10,0 °C 6,7 °C 94 % 982,7 hPa 0,0 l/m² 0 min 0 min 89 W/m² 9,7 km/h (2 Bft) 97,83 %
12.02.2026 15:12 10,1 °C 10,0 °C 6,7 °C 93 % 982,7 hPa 0,0 l/m² 0 min 0 min 86 W/m² 9,7 km/h (2 Bft) 100,00 %
12.02.2026 15:14 10,1 °C 10,0 °C 6,7 °C 93 % 982,7 hPa 0,0 l/m² 0 min 0 min 88 W/m² 6,4 km/h (2 Bft) 97,87 %
12.02.2026 15:16 10,1 °C 10,0 °C 6,7 °C 93 % 982,8 hPa 0,0 l/m² 0 min 0 min 85 W/m² 12,9 km/h (3 Bft) 100,00 %
12.02.2026 15:18 10,1 °C 10,0 °C 6,7 °C 93 % 982,8 hPa 0,0 l/m² 0 min 0 min 74 W/m² 16,1 km/h (3 Bft) 100,00 %
12.02.2026 15:20 10,1 °C 10,0 °C 6,1 °C 93 % 982,8 hPa 0,0 l/m² 0 min 0 min 64 W/m² 16,1 km/h (3 Bft) 100,00 %
12.02.2026 15:22 10,1 °C 9,4 °C 6,1 °C 93 % 982,8 hPa 0,0 l/m² 0 min 0 min 55 W/m² 12,9 km/h (3 Bft) 100,00 %
12.02.2026 15:24 10,1 °C 9,4 °C 6,1 °C 93 % 982,8 hPa 0,0 l/m² 0 min 0 min 53 W/m² 12,9 km/h (3 Bft) 100,00 %
12.02.2026 15:26 10,1 °C 9,4 °C 6,1 °C 93 % 982,9 hPa 0,0 l/m² 0 min 0 min 62 W/m² 9,7 km/h (2 Bft) 100,00 %
12.02.2026 15:28 10,1 °C 10,0 °C 6,1 °C 93 % 982,9 hPa 0,0 l/m² 0 min 0 min 79 W/m² 6,4 km/h (2 Bft) 100,00 %
12.02.2026 15:30 10,0 °C 10,0 °C 6,1 °C 93 % 982,9 hPa 0,0 l/m² 0 min 0 min 78 W/m² 12,9 km/h (3 Bft) 97,87 %
12.02.2026 15:32 10,0 °C 10,0 °C 6,1 °C 93 % 982,9 hPa 0,0 l/m² 0 min 0 min 53 W/m² 12,9 km/h (3 Bft) 95,74 %
12.02.2026 15:34 10,0 °C 9,4 °C 6,1 °C 93 % 983,0 hPa 0,0 l/m² 0 min 0 min 39 W/m² 16,1 km/h (3 Bft) 95,74 %
12.02.2026 15:36 10,0 °C 9,4 °C 6,1 °C 93 % 983,1 hPa 0,0 l/m² 0 min 0 min 25 W/m² 16,1 km/h (3 Bft) 97,87 %
12.02.2026 15:38 9,9 °C 9,4 °C 6,1 °C 93 % 983,1 hPa 0,0 l/m² 0 min 0 min 20 W/m² 22,5 km/h (4 Bft) 97,87 %
12.02.2026 15:40 9,9 °C 9,4 °C 6,1 °C 93 % 983,1 hPa 0,0 l/m² 0 min 0 min 26 W/m² 9,7 km/h (2 Bft) 95,74 %
12.02.2026 15:42 9,8 °C 8,9 °C 5,6 °C 93 % 983,1 hPa 0,0 l/m² 0 min 2 min 25 W/m² 22,5 km/h (4 Bft) 97,87 %
12.02.2026 15:44 9,7 °C 8,9 °C 5,6 °C 93 % 983,2 hPa 0,2 l/m² 0 min 2 min 21 W/m² 22,5 km/h (4 Bft) 97,87 %
12.02.2026 15:46 9,7 °C 8,3 °C 5,6 °C 93 % 983,2 hPa 0,0 l/m² 0 min 2 min 28 W/m² 16,1 km/h (3 Bft) 95,74 %
12.02.2026 15:48 9,6 °C 8,3 °C 5,6 °C 93 % 983,3 hPa 0,2 l/m² 0 min 2 min 38 W/m² 16,1 km/h (3 Bft) 93,62 %
12.02.2026 15:50 9,4 °C 8,3 °C 5,6 °C 93 % 983,3 hPa 0,0 l/m² 0 min 0 min 45 W/m² 16,1 km/h (3 Bft) 95,74 %
12.02.2026 15:52 9,4 °C 8,3 °C 5,6 °C 94 % 983,3 hPa 0,0 l/m² 0 min 0 min 46 W/m² 16,1 km/h (3 Bft) 97,83 %
12.02.2026 15:54 9,3 °C 8,3 °C 5,6 °C 94 % 983,3 hPa 0,0 l/m² 0 min 0 min 48 W/m² 12,9 km/h (3 Bft) 97,87 %
12.02.2026 15:56 9,3 °C 8,3 °C 5,6 °C 94 % 983,3 hPa 0,0 l/m² 0 min 0 min 44 W/m² 12,9 km/h (3 Bft) 94,00 %
12.02.2026 15:58 9,3 °C 8,3 °C 5,6 °C 94 % 983,3 hPa 0,0 l/m² 0 min 0 min 49 W/m² 16,1 km/h (3 Bft) 97,87 %
12.02.2026 16:00 9,2 °C 8,3 °C 5,6 °C 94 % 983,4 hPa 0,0 l/m² 0 min 0 min 58 W/m² 16,1 km/h (3 Bft) 97,87 %
12.02.2026 16:02 9,2 °C 8,3 °C 5,6 °C 95 % 983,4 hPa 0,0 l/m² 0 min 0 min 54 W/m² 12,9 km/h (3 Bft) 97,87 %
12.02.2026 16:04 9,2 °C 8,9 °C 5,6 °C 95 % 983,4 hPa 0,0 l/m² 0 min 0 min 51 W/m² 12,9 km/h (3 Bft) 95,74 %
12.02.2026 16:06 9,2 °C 8,9 °C 5,6 °C 95 % 983,5 hPa 0,0 l/m² 0 min 0 min 53 W/m² 16,1 km/h (3 Bft) 97,87 %
12.02.2026 16:08 9,2 °C 8,9 °C 5,6 °C 95 % 983,5 hPa 0,0 l/m² 0 min 0 min 54 W/m² 6,4 km/h (2 Bft) 4,76 %
12.02.2026 16:10 9,2 °C 8,9 °C 5,6 °C 95 % 983,5 hPa 0,0 l/m² 0 min 0 min 56 W/m² 9,7 km/h (2 Bft) 94,87 %
12.02.2026 16:12 9,2 °C 8,9 °C 5,6 °C 95 % 983,5 hPa 0,0 l/m² 0 min 0 min 57 W/m² 12,9 km/h (3 Bft) 95,74 %
12.02.2026 16:14 9,2 °C 8,9 °C 5,6 °C 95 % 983,6 hPa 0,0 l/m² 0 min 0 min 62 W/m² 16,1 km/h (3 Bft) 97,87 %
12.02.2026 16:16 9,2 °C 8,9 °C 5,6 °C 95 % 983,6 hPa 0,0 l/m² 0 min 0 min 62 W/m² 16,1 km/h (3 Bft) 95,74 %
12.02.2026 16:18 9,2 °C 8,9 °C 5,6 °C 95 % 983,7 hPa 0,0 l/m² 0 min 0 min 51 W/m² 9,7 km/h (2 Bft) 97,87 %
12.02.2026 16:20 9,2 °C 8,9 °C 5,6 °C 96 % 983,8 hPa 0,0 l/m² 0 min 0 min 43 W/m² 12,9 km/h (3 Bft) 97,87 %
12.02.2026 16:22 9,2 °C 8,3 °C 5,0 °C 95 % 983,8 hPa 0,0 l/m² 0 min 0 min 42 W/m² 12,9 km/h (3 Bft) 95,74 %
12.02.2026 16:24 9,1 °C 8,3 °C 5,0 °C 95 % 983,8 hPa 0,0 l/m² 0 min 0 min 40 W/m² 12,9 km/h (3 Bft) 97,87 %
12.02.2026 16:26 9,1 °C 8,3 °C 5,0 °C 95 % 983,8 hPa 0,0 l/m² 0 min 0 min 34 W/m² 12,9 km/h (3 Bft) 93,62 %
12.02.2026 16:28 9,1 °C 8,3 °C 5,0 °C 96 % 983,9 hPa 0,0 l/m² 0 min 0 min 25 W/m² 12,9 km/h (3 Bft) 97,87 %
12.02.2026 16:30 9,1 °C 8,3 °C 5,0 °C 96 % 983,9 hPa 0,0 l/m² 0 min 0 min 20 W/m² 6,4 km/h (2 Bft) 97,83 %
12.02.2026 16:32 9,1 °C 8,3 °C 5,0 °C 96 % 983,9 hPa 0,0 l/m² 0 min 0 min 18 W/m² 6,4 km/h (2 Bft) 97,87 %
12.02.2026 16:34 9,1 °C 8,3 °C 5,0 °C 96 % 983,9 hPa 0,0 l/m² 0 min 0 min 17 W/m² 9,7 km/h (2 Bft) 97,87 %
12.02.2026 16:36 9,1 °C 8,3 °C 5,0 °C 96 % 984,0 hPa 0,0 l/m² 0 min 0 min 10 W/m² 12,9 km/h (3 Bft) 93,62 %
12.02.2026 16:38 9,1 °C 8,3 °C 5,0 °C 96 % 984,0 hPa 0,0 l/m² 0 min 0 min 5 W/m² 6,4 km/h (2 Bft) 95,74 %
12.02.2026 16:40 9,1 °C 8,3 °C 5,0 °C 96 % 984,1 hPa 0,0 l/m² 0 min 0 min 5 W/m² 6,4 km/h (2 Bft) 93,62 %
12.02.2026 16:42 9,1 °C 8,3 °C 5,0 °C 96 % 984,1 hPa 0,0 l/m² 0 min 0 min 6 W/m² 12,9 km/h (3 Bft) 93,62 %
12.02.2026 16:44 9,1 °C 8,3 °C 5,0 °C 96 % 984,1 hPa 0,0 l/m² 0 min 0 min 5 W/m² 12,9 km/h (3 Bft) 95,74 %
12.02.2026 16:46 9,1 °C 8,3 °C 5,0 °C 96 % 984,1 hPa 0,0 l/m² 0 min 0 min 6 W/m² 6,4 km/h (2 Bft) 93,62 %
12.02.2026 16:48 9,0 °C 8,3 °C 5,0 °C 96 % 984,1 hPa 0,0 l/m² 0 min 0 min 8 W/m² 12,9 km/h (3 Bft) 95,74 %
12.02.2026 16:50 9,0 °C 8,3 °C 5,0 °C 96 % 984,2 hPa 0,0 l/m² 0 min 0 min 8 W/m² 6,4 km/h (2 Bft) 95,74 %
12.02.2026 16:52 9,0 °C 8,3 °C 5,0 °C 96 % 984,2 hPa 0,0 l/m² 0 min 0 min 12 W/m² 16,1 km/h (3 Bft) 95,74 %
12.02.2026 16:54 9,0 °C 8,3 °C 5,0 °C 96 % 984,2 hPa 0,0 l/m² 0 min 0 min 11 W/m² 6,4 km/h (2 Bft) 95,65 %
12.02.2026 16:56 9,0 °C 8,3 °C 5,0 °C 96 % 984,2 hPa 0,0 l/m² 0 min 0 min 6 W/m² 12,9 km/h (3 Bft) 93,62 %
12.02.2026 16:58 8,9 °C 8,3 °C 5,0 °C 96 % 984,2 hPa 0,0 l/m² 0 min 0 min 5 W/m² 12,9 km/h (3 Bft) 93,62 %
12.02.2026 17:00 8,9 °C 8,3 °C 5,0 °C 96 % 984,2 hPa 0,0 l/m² 0 min 2 min 2 W/m² 12,9 km/h (3 Bft) 95,74 %
12.02.2026 17:02 8,9 °C 8,3 °C 5,0 °C 96 % 984,3 hPa 0,0 l/m² 0 min 0 min 2 W/m² 16,1 km/h (3 Bft) 95,74 %
12.02.2026 17:04 8,9 °C 8,3 °C 5,0 °C 96 % 984,4 hPa 0,0 l/m² 0 min 2 min 8 W/m² 6,4 km/h (2 Bft) 94,29 %
12.02.2026 17:06 8,9 °C 8,3 °C 5,0 °C 96 % 984,4 hPa 0,2 l/m² 0 min 2 min 12 W/m² 12,9 km/h (3 Bft) 98,31 %
12.02.2026 17:08 8,9 °C 8,3 °C 5,0 °C 96 % 984,5 hPa 0,0 l/m² 0 min 2 min 12 W/m² 9,7 km/h (2 Bft) 100,00 %
12.02.2026 17:10 8,9 °C 8,3 °C 5,0 °C 96 % 984,5 hPa 0,0 l/m² 0 min 0 min 12 W/m² 12,9 km/h (3 Bft) 100,00 %
12.02.2026 17:12 8,8 °C 8,3 °C 5,0 °C 96 % 984,5 hPa 0,0 l/m² 0 min 0 min 13 W/m² 12,9 km/h (3 Bft) 100,00 %
12.02.2026 17:14 8,8 °C 8,3 °C 5,0 °C 96 % 984,5 hPa 0,0 l/m² 0 min 0 min 16 W/m² 12,9 km/h (3 Bft) 100,00 %
12.02.2026 17:16 8,8 °C 8,3 °C 5,0 °C 96 % 984,6 hPa 0,0 l/m² 0 min 0 min 16 W/m² 9,7 km/h (2 Bft) 97,87 %
12.02.2026 17:18 8,8 °C 7,8 °C 5,0 °C 96 % 984,6 hPa 0,0 l/m² 0 min 0 min 15 W/m² 12,9 km/h (3 Bft) 100,00 %
12.02.2026 17:20 8,8 °C 7,8 °C 5,0 °C 96 % 984,6 hPa 0,0 l/m² 0 min 0 min 13 W/m² 16,1 km/h (3 Bft) 97,87 %
12.02.2026 17:22 8,8 °C 7,8 °C 5,0 °C 96 % 984,6 hPa 0,0 l/m² 0 min 0 min 11 W/m² 12,9 km/h (3 Bft) 97,87 %
12.02.2026 17:24 8,7 °C 7,8 °C 5,0 °C 96 % 984,7 hPa 0,0 l/m² 0 min 0 min 7 W/m² 12,9 km/h (3 Bft) 100,00 %
12.02.2026 17:26 8,7 °C 7,8 °C 5,0 °C 96 % 984,7 hPa 0,0 l/m² 0 min 0 min 5 W/m² 6,4 km/h (2 Bft) 95,74 %
12.02.2026 17:28 8,7 °C 7,8 °C 5,0 °C 96 % 984,7 hPa 0,0 l/m² 0 min 0 min 5 W/m² 12,9 km/h (3 Bft) 100,00 %
12.02.2026 17:30 8,7 °C 7,8 °C 5,0 °C 97 % 984,7 hPa 0,0 l/m² 0 min 0 min 3 W/m² 9,7 km/h (2 Bft) 100,00 %
12.02.2026 17:32 8,7 °C 7,8 °C 5,0 °C 97 % 984,7 hPa 0,0 l/m² 0 min 0 min 0 W/m² 9,7 km/h (2 Bft) 97,87 %
12.02.2026 17:34 8,7 °C 7,8 °C 5,0 °C 97 % 984,8 hPa 0,0 l/m² 0 min 0 min 0 W/m² 9,7 km/h (2 Bft) 100,00 %
12.02.2026 17:36 8,7 °C 7,8 °C 5,0 °C 97 % 984,8 hPa 0,0 l/m² 0 min 0 min 0 W/m² 12,9 km/h (3 Bft) 100,00 %
12.02.2026 17:38 8,6 °C 7,8 °C 5,0 °C 96 % 984,8 hPa 0,0 l/m² 0 min 0 min 0 W/m² 12,9 km/h (3 Bft) 100,00 %
12.02.2026 17:40 8,6 °C 7,8 °C 5,0 °C 96 % 984,8 hPa 0,0 l/m² 0 min 0 min 0 W/m² 6,4 km/h (2 Bft) 97,87 %
12.02.2026 17:42 8,6 °C 7,8 °C 5,0 °C 96 % 984,8 hPa 0,0 l/m² 0 min 0 min 0 W/m² 9,7 km/h (2 Bft) 100,00 %
12.02.2026 17:44 8,6 °C 7,8 °C 5,0 °C 96 % 984,8 hPa 0,0 l/m² 0 min 0 min 0 W/m² 6,4 km/h (2 Bft) 100,00 %
12.02.2026 17:46 8,6 °C 7,8 °C 5,0 °C 96 % 984,9 hPa 0,0 l/m² 0 min 0 min 0 W/m² 3,2 km/h (1 Bft) 100,00 %
12.02.2026 17:48 8,6 °C 7,8 °C 5,0 °C 96 % 984,9 hPa 0,0 l/m² 0 min 0 min 0 W/m² 12,9 km/h (3 Bft) 100,00 %
12.02.2026 17:50 8,6 °C 7,8 °C 4,4 °C 96 % 985,0 hPa 0,0 l/m² 0 min 0 min 0 W/m² 12,9 km/h (3 Bft) 97,87 %
12.02.2026 17:52 8,6 °C 7,8 °C 4,4 °C 96 % 985,0 hPa 0,0 l/m² 0 min 0 min 0 W/m² 12,9 km/h (3 Bft) 100,00 %
12.02.2026 17:54 8,6 °C 7,8 °C 4,4 °C 96 % 985,1 hPa 0,0 l/m² 0 min 0 min 0 W/m² 12,9 km/h (3 Bft) 100,00 %
12.02.2026 17:56 8,6 °C 7,8 °C 4,4 °C 96 % 985,1 hPa 0,0 l/m² 0 min 0 min 0 W/m² 6,4 km/h (2 Bft) 100,00 %
12.02.2026 17:58 8,6 °C 7,8 °C 4,4 °C 96 % 985,1 hPa 0,0 l/m² 0 min 0 min 0 W/m² 12,9 km/h (3 Bft) 100,00 %
12.02.2026 18:00 8,6 °C 7,8 °C 4,4 °C 96 % 985,2 hPa 0,0 l/m² 0 min 0 min 0 W/m² 9,7 km/h (2 Bft) 100,00 %
12.02.2026 18:02 8,6 °C 7,8 °C 4,4 °C 96 % 985,2 hPa 0,0 l/m² 0 min 0 min 0 W/m² 6,4 km/h (2 Bft) 100,00 %
12.02.2026 18:04 8,6 °C 7,8 °C 4,4 °C 96 % 985,2 hPa 0,0 l/m² 0 min 0 min 0 W/m² 12,9 km/h (3 Bft) 100,00 %
12.02.2026 18:07 8,6 °C 7,8 °C 4,4 °C 96 % 985,2 hPa 0,0 l/m² 0 min 0 min 0 W/m² 12,9 km/h (3 Bft) 98,67 %
12.02.2026 18:08 8,6 °C 7,8 °C 4,4 °C 96 % 985,2 hPa 0,0 l/m² 0 min 0 min 0 W/m² 6,4 km/h (2 Bft) 100,00 %
12.02.2026 18:12 8,6 °C 7,8 °C 4,4 °C 96 % 985,3 hPa 0,0 l/m² 0 min 0 min 0 W/m² 12,9 km/h (3 Bft) 98,28 %
12.02.2026 18:14 8,6 °C 7,8 °C 4,4 °C 96 % 985,3 hPa 0,0 l/m² 0 min 0 min 0 W/m² 12,9 km/h (3 Bft) 100,00 %
12.02.2026 18:16 8,6 °C 7,8 °C 4,4 °C 96 % 985,3 hPa 0,0 l/m² 0 min 0 min 0 W/m² 12,9 km/h (3 Bft) 100,00 %
12.02.2026 18:18 8,6 °C 7,8 °C 4,4 °C 96 % 985,4 hPa 0,0 l/m² 0 min 0 min 0 W/m² 12,9 km/h (3 Bft) 97,87 %
12.02.2026 18:20 8,6 °C 7,8 °C 4,4 °C 96 % 985,4 hPa 0,0 l/m² 0 min 0 min 0 W/m² 9,7 km/h (2 Bft) 100,00 %
12.02.2026 18:22 8,5 °C 7,8 °C 4,4 °C 96 % 985,4 hPa 0,0 l/m² 0 min 0 min 0 W/m² 9,7 km/h (2 Bft) 100,00 %
12.02.2026 18:24 8,6 °C 7,8 °C 4,4 °C 96 % 985,4 hPa 0,0 l/m² 0 min 0 min 0 W/m² 6,4 km/h (2 Bft) 97,87 %
12.02.2026 18:26 8,6 °C 7,8 °C 4,4 °C 96 % 985,5 hPa 0,0 l/m² 0 min 0 min 0 W/m² 12,9 km/h (3 Bft) 97,87 %
12.02.2026 18:28 8,6 °C 7,8 °C 4,4 °C 96 % 985,5 hPa 0,0 l/m² 0 min 0 min 0 W/m² 9,7 km/h (2 Bft) 95,74 %
12.02.2026 18:30 8,6 °C 7,8 °C 4,4 °C 96 % 985,5 hPa 0,0 l/m² 0 min 0 min 0 W/m² 12,9 km/h (3 Bft) 97,83 %
12.02.2026 18:32 8,6 °C 7,8 °C 4,4 °C 96 % 985,4 hPa 0,0 l/m² 0 min 0 min 0 W/m² 12,9 km/h (3 Bft) 100,00 %
12.02.2026 18:34 8,6 °C 7,8 °C 4,4 °C 96 % 985,5 hPa 0,0 l/m² 0 min 0 min 0 W/m² 6,4 km/h (2 Bft) 97,87 %
12.02.2026 18:36 8,6 °C 7,8 °C 4,4 °C 96 % 985,5 hPa 0,0 l/m² 0 min 0 min 0 W/m² 6,4 km/h (2 Bft) 97,87 %
12.02.2026 18:38 8,5 °C 7,8 °C 4,4 °C 95 % 985,6 hPa 0,0 l/m² 0 min 0 min 0 W/m² 6,4 km/h (2 Bft) 97,87 %
12.02.2026 18:40 8,6 °C 7,8 °C 4,4 °C 95 % 985,6 hPa 0,0 l/m² 0 min 0 min 0 W/m² 6,4 km/h (2 Bft) 91,49 %
12.02.2026 18:42 8,6 °C 7,8 °C 4,4 °C 95 % 985,7 hPa 0,0 l/m² 0 min 0 min 0 W/m² 6,4 km/h (2 Bft) 93,62 %
12.02.2026 18:44 8,5 °C 7,8 °C 4,4 °C 95 % 985,7 hPa 0,0 l/m² 0 min 0 min 0 W/m² 6,4 km/h (2 Bft) 97,14 %
12.02.2026 18:46 8,5 °C 7,8 °C 4,4 °C 95 % 985,7 hPa 0,0 l/m² 0 min 0 min 0 W/m² 3,2 km/h (1 Bft) 93,22 %
12.02.2026 18:48 8,5 °C 7,8 °C 4,4 °C 95 % 985,7 hPa 0,0 l/m² 0 min 0 min 0 W/m² 6,4 km/h (2 Bft) 93,62 %
12.02.2026 18:50 8,6 °C 7,8 °C 4,4 °C 95 % 985,8 hPa 0,0 l/m² 0 min 0 min 0 W/m² 12,9 km/h (3 Bft) 95,74 %
12.02.2026 18:52 8,6 °C 7,8 °C 4,4 °C 95 % 985,8 hPa 0,0 l/m² 0 min 0 min 0 W/m² 6,4 km/h (2 Bft) 95,74 %
12.02.2026 18:54 8,6 °C 7,8 °C 4,4 °C 95 % 985,9 hPa 0,0 l/m² 0 min 0 min 0 W/m² 6,4 km/h (2 Bft) 95,74 %
12.02.2026 18:56 8,6 °C 7,8 °C 4,4 °C 95 % 985,8 hPa 0,0 l/m² 0 min 0 min 0 W/m² 12,9 km/h (3 Bft) 93,62 %
12.02.2026 18:58 8,6 °C 7,8 °C 4,4 °C 95 % 985,9 hPa 0,0 l/m² 0 min 0 min 0 W/m² 12,9 km/h (3 Bft) 95,74 %
12.02.2026 19:00 8,6 °C 7,8 °C 4,4 °C 95 % 985,8 hPa 0,0 l/m² 0 min 0 min 0 W/m² 19,3 km/h (3 Bft) 95,74 %
12.02.2026 19:02 8,6 °C 7,8 °C 4,4 °C 95 % 985,9 hPa 0,0 l/m² 0 min 0 min 0 W/m² 16,1 km/h (3 Bft) 95,74 %
12.02.2026 19:04 8,6 °C 7,8 °C 4,4 °C 95 % 985,9 hPa 0,0 l/m² 0 min 0 min 0 W/m² 9,7 km/h (2 Bft) 95,83 %
12.02.2026 19:06 8,6 °C 7,8 °C 4,4 °C 96 % 985,9 hPa 0,0 l/m² 0 min 0 min 0 W/m² 16,1 km/h (3 Bft) 95,65 %
12.02.2026 19:08 8,6 °C 7,8 °C 4,4 °C 96 % 985,9 hPa 0,0 l/m² 0 min 0 min 0 W/m² 16,1 km/h (3 Bft) 95,74 %
12.02.2026 19:10 8,5 °C 7,8 °C 4,4 °C 96 % 986,0 hPa 0,0 l/m² 0 min 0 min 0 W/m² 19,3 km/h (3 Bft) 95,74 %
12.02.2026 19:12 8,5 °C 7,8 °C 4,4 °C 96 % 986,0 hPa 0,0 l/m² 0 min 0 min 0 W/m² 12,9 km/h (3 Bft) 93,62 %
12.02.2026 19:14 8,5 °C 7,8 °C 4,4 °C 96 % 986,0 hPa 0,0 l/m² 0 min 0 min 0 W/m² 12,9 km/h (3 Bft) 94,29 %
12.02.2026 19:16 8,5 °C 7,8 °C 4,4 °C 96 % 986,0 hPa 0,0 l/m² 0 min 0 min 0 W/m² 6,4 km/h (2 Bft) 95,74 %
12.02.2026 19:18 8,4 °C 7,8 °C 4,4 °C 96 % 986,1 hPa 0,0 l/m² 0 min 0 min 0 W/m² 12,9 km/h (3 Bft) 95,74 %
12.02.2026 19:20 8,4 °C 7,8 °C 4,4 °C 96 % 986,1 hPa 0,0 l/m² 0 min 0 min 0 W/m² 19,3 km/h (3 Bft) 91,49 %
12.02.2026 19:22 8,4 °C 7,8 °C 4,4 °C 96 % 986,1 hPa 0,0 l/m² 0 min 0 min 0 W/m² 12,9 km/h (3 Bft) 95,74 %
12.02.2026 19:24 8,4 °C 7,8 °C 4,4 °C 95 % 986,2 hPa 0,0 l/m² 0 min 0 min 0 W/m² 12,9 km/h (3 Bft) 95,74 %
12.02.2026 19:26 8,4 °C 7,8 °C 4,4 °C 96 % 986,2 hPa 0,0 l/m² 0 min 0 min 0 W/m² 9,7 km/h (2 Bft) 93,62 %
12.02.2026 19:28 8,4 °C 7,8 °C 4,4 °C 95 % 986,2 hPa 0,0 l/m² 0 min 0 min 0 W/m² 6,4 km/h (2 Bft) 95,74 %
12.02.2026 19:30 8,4 °C 7,8 °C 4,4 °C 95 % 986,2 hPa 0,0 l/m² 0 min 0 min 0 W/m² 12,9 km/h (3 Bft) 95,74 %
12.02.2026 19:32 8,4 °C 7,8 °C 4,4 °C 95 % 986,2 hPa 0,0 l/m² 0 min 0 min 0 W/m² 16,1 km/h (3 Bft) 95,74 %
12.02.2026 19:34 8,4 °C 7,8 °C 4,4 °C 95 % 986,2 hPa 0,0 l/m² 0 min 0 min 0 W/m² 9,7 km/h (2 Bft) 95,65 %
12.02.2026 19:36 8,4 °C 7,8 °C 4,4 °C 95 % 986,3 hPa 0,0 l/m² 0 min 0 min 0 W/m² 12,9 km/h (3 Bft) 95,74 %
12.02.2026 19:38 8,3 °C 7,8 °C 4,4 °C 95 % 986,3 hPa 0,0 l/m² 0 min 0 min 0 W/m² 12,9 km/h (3 Bft) 100,00 %
12.02.2026 19:40 8,3 °C 7,8 °C 4,4 °C 95 % 986,3 hPa 0,0 l/m² 0 min 0 min 0 W/m² 9,7 km/h (2 Bft) 97,87 %
12.02.2026 19:42 8,3 °C 7,8 °C 4,4 °C 95 % 986,3 hPa 0,0 l/m² 0 min 0 min 0 W/m² 16,1 km/h (3 Bft) 97,87 %
12.02.2026 19:44 8,3 °C 7,8 °C 4,4 °C 95 % 986,3 hPa 0,0 l/m² 0 min 0 min 0 W/m² 16,1 km/h (3 Bft) 97,87 %
12.02.2026 19:46 8,3 °C 7,8 °C 4,4 °C 95 % 986,3 hPa 0,0 l/m² 0 min 0 min 0 W/m² 9,7 km/h (2 Bft) 100,00 %
12.02.2026 19:48 8,3 °C 7,8 °C 4,4 °C 95 % 986,4 hPa 0,0 l/m² 0 min 0 min 0 W/m² 12,9 km/h (3 Bft) 100,00 %
12.02.2026 19:50 8,3 °C 7,8 °C 4,4 °C 95 % 986,4 hPa 0,0 l/m² 0 min 0 min 0 W/m² 6,4 km/h (2 Bft) 100,00 %
12.02.2026 19:52 8,3 °C 7,8 °C 4,4 °C 95 % 986,4 hPa 0,0 l/m² 0 min 0 min 0 W/m² 9,7 km/h (2 Bft) 100,00 %
12.02.2026 19:54 8,3 °C 7,8 °C 4,4 °C 95 % 986,5 hPa 0,0 l/m² 0 min 0 min 0 W/m² 12,9 km/h (3 Bft) 97,83 %
12.02.2026 19:56 8,3 °C 7,8 °C 4,4 °C 95 % 986,4 hPa 0,0 l/m² 0 min 0 min 0 W/m² 3,2 km/h (1 Bft) 100,00 %
12.02.2026 19:58 8,2 °C 7,8 °C 4,4 °C 95 % 986,4 hPa 0,0 l/m² 0 min 0 min 0 W/m² 12,9 km/h (3 Bft) 97,87 %
12.02.2026 20:00 8,2 °C 7,8 °C 4,4 °C 95 % 986,5 hPa 0,0 l/m² 0 min 0 min 0 W/m² 12,9 km/h (3 Bft) 97,87 %
12.02.2026 20:02 8,2 °C 7,8 °C 4,4 °C 95 % 986,5 hPa 0,0 l/m² 0 min 0 min 0 W/m² 12,9 km/h (3 Bft) 100,00 %
12.02.2026 20:04 8,2 °C 7,8 °C 4,4 °C 95 % 986,5 hPa 0,0 l/m² 0 min 0 min 0 W/m² 12,9 km/h (3 Bft) 100,00 %
12.02.2026 20:06 8,2 °C 7,8 °C 4,4 °C 95 % 986,5 hPa 0,0 l/m² 0 min 0 min 0 W/m² 12,9 km/h (3 Bft) 98,31 %
12.02.2026 20:08 8,2 °C 7,8 °C 4,4 °C 95 % 986,5 hPa 0,0 l/m² 0 min 0 min 0 W/m² 9,7 km/h (2 Bft) 100,00 %
12.02.2026 20:10 8,2 °C 7,2 °C 4,4 °C 95 % 986,6 hPa 0,0 l/m² 0 min 0 min 0 W/m² 12,9 km/h (3 Bft) 100,00 %
12.02.2026 20:12 8,2 °C 7,2 °C 4,4 °C 95 % 986,5 hPa 0,0 l/m² 0 min 0 min 0 W/m² 6,4 km/h (2 Bft) 98,21 %
12.02.2026 20:14 8,2 °C 7,2 °C 4,4 °C 95 % 986,6 hPa 0,0 l/m² 0 min 0 min 0 W/m² 12,9 km/h (3 Bft) 95,74 %
12.02.2026 20:16 8,2 °C 7,8 °C 4,4 °C 95 % 986,6 hPa 0,0 l/m² 0 min 0 min 0 W/m² 19,3 km/h (3 Bft) 95,74 %
12.02.2026 20:18 8,1 °C 7,2 °C 4,4 °C 95 % 986,6 hPa 0,0 l/m² 0 min 0 min 0 W/m² 6,4 km/h (2 Bft) 97,87 %
12.02.2026 20:20 8,1 °C 7,2 °C 4,4 °C 95 % 986,6 hPa 0,0 l/m² 0 min 0 min 0 W/m² 9,7 km/h (2 Bft) 97,87 %
12.02.2026 20:22 8,1 °C 7,2 °C 4,4 °C 95 % 986,6 hPa 0,0 l/m² 0 min 0 min 0 W/m² 6,4 km/h (2 Bft) 97,87 %
12.02.2026 20:24 8,1 °C 7,8 °C 4,4 °C 95 % 986,6 hPa 0,0 l/m² 0 min 0 min 0 W/m² 19,3 km/h (3 Bft) 93,62 %
12.02.2026 20:26 8,1 °C 7,8 °C 4,4 °C 95 % 986,6 hPa 0,0 l/m² 0 min 0 min 0 W/m² 12,9 km/h (3 Bft) 97,83 %
12.02.2026 20:28 8,1 °C 7,8 °C 4,4 °C 94 % 986,8 hPa 0,0 l/m² 0 min 0 min 0 W/m² 6,4 km/h (2 Bft) 39,39 %
12.02.2026 20:30 8,1 °C 7,8 °C 4,4 °C 94 % 986,8 hPa 0,0 l/m² 0 min 0 min 0 W/m² 12,9 km/h (3 Bft) 97,67 %
12.02.2026 20:32 8,1 °C 7,8 °C 4,4 °C 94 % 986,8 hPa 0,0 l/m² 0 min 0 min 0 W/m² 6,4 km/h (2 Bft) 97,87 %
12.02.2026 20:34 8,1 °C 7,8 °C 4,4 °C 94 % 986,8 hPa 0,0 l/m² 0 min 0 min 0 W/m² 16,1 km/h (3 Bft) 97,87 %
12.02.2026 20:36 8,1 °C 7,8 °C 4,4 °C 94 % 986,8 hPa 0,0 l/m² 0 min 0 min 0 W/m² 22,5 km/h (4 Bft) 97,87 %
12.02.2026 20:38 8,2 °C 7,8 °C 4,4 °C 94 % 986,8 hPa 0,0 l/m² 0 min 0 min 0 W/m² 16,1 km/h (3 Bft) 95,74 %
12.02.2026 20:40 8,2 °C 7,8 °C 4,4 °C 94 % 986,9 hPa 0,0 l/m² 0 min 0 min 0 W/m² 16,1 km/h (3 Bft) 100,00 %
12.02.2026 20:42 8,2 °C 7,8 °C 4,4 °C 94 % 986,9 hPa 0,0 l/m² 0 min 0 min 0 W/m² 19,3 km/h (3 Bft) 97,87 %
12.02.2026 20:44 8,2 °C 7,8 °C 4,4 °C 94 % 986,9 hPa 0,0 l/m² 0 min 0 min 0 W/m² 12,9 km/h (3 Bft) 100,00 %
12.02.2026 20:46 8,2 °C 7,8 °C 4,4 °C 94 % 986,9 hPa 0,0 l/m² 0 min 0 min 0 W/m² 16,1 km/h (3 Bft) 97,87 %
12.02.2026 20:48 8,2 °C 7,8 °C 4,4 °C 94 % 987,0 hPa 0,0 l/m² 0 min 0 min 0 W/m² 6,4 km/h (2 Bft) 97,87 %
12.02.2026 20:50 8,2 °C 7,2 °C 4,4 °C 94 % 987,0 hPa 0,0 l/m² 0 min 0 min 0 W/m² 6,4 km/h (2 Bft) 97,83 %
12.02.2026 20:52 8,2 °C 7,2 °C 4,4 °C 94 % 987,0 hPa 0,0 l/m² 0 min 0 min 0 W/m² 6,4 km/h (2 Bft) 100,00 %
12.02.2026 20:54 8,2 °C 7,2 °C 4,4 °C 94 % 987,1 hPa 0,0 l/m² 0 min 0 min 0 W/m² 6,4 km/h (2 Bft) 97,87 %
12.02.2026 20:56 8,2 °C 7,2 °C 4,4 °C 94 % 987,0 hPa 0,0 l/m² 0 min 0 min 0 W/m² 6,4 km/h (2 Bft) 100,00 %
12.02.2026 20:58 8,2 °C 7,2 °C 4,4 °C 94 % 987,1 hPa 0,0 l/m² 0 min 0 min 0 W/m² 6,4 km/h (2 Bft) 100,00 %
12.02.2026 21:00 8,2 °C 7,2 °C 4,4 °C 94 % 987,1 hPa 0,0 l/m² 0 min 0 min 0 W/m² 12,9 km/h (3 Bft) 100,00 %
12.02.2026 21:02 8,2 °C 7,2 °C 4,4 °C 94 % 987,1 hPa 0,0 l/m² 0 min 0 min 0 W/m² 6,4 km/h (2 Bft) 97,96 %
12.02.2026 21:04 8,2 °C 7,2 °C 4,4 °C 94 % 987,2 hPa 0,0 l/m² 0 min 0 min 0 W/m² 9,7 km/h (2 Bft) 100,00 %
12.02.2026 21:06 8,2 °C 7,2 °C 4,4 °C 95 % 987,2 hPa 0,0 l/m² 0 min 0 min 0 W/m² 6,4 km/h (2 Bft) 98,31 %
12.02.2026 21:08 8,2 °C 7,2 °C 4,4 °C 95 % 987,2 hPa 0,0 l/m² 0 min 0 min 0 W/m² 3,2 km/h (1 Bft) 100,00 %
12.02.2026 21:10 8,2 °C 7,2 °C 4,4 °C 95 % 987,2 hPa 0,0 l/m² 0 min 0 min 0 W/m² 3,2 km/h (1 Bft) 100,00 %
12.02.2026 21:12 8,2 °C 7,2 °C 4,4 °C 94 % 987,2 hPa 0,0 l/m² 0 min 0 min 0 W/m² 6,4 km/h (2 Bft) 97,87 %
12.02.2026 21:14 8,2 °C 7,2 °C 4,4 °C 95 % 987,2 hPa 0,0 l/m² 0 min 0 min 0 W/m² 9,7 km/h (2 Bft) 100,00 %
12.02.2026 21:16 8,2 °C 7,2 °C 4,4 °C 95 % 987,3 hPa 0,0 l/m² 0 min 0 min 0 W/m² 12,9 km/h (3 Bft) 97,83 %
12.02.2026 21:18 8,2 °C 7,2 °C 4,4 °C 95 % 987,3 hPa 0,0 l/m² 0 min 0 min 0 W/m² 9,7 km/h (2 Bft) 95,74 %
12.02.2026 21:20 8,2 °C 7,2 °C 4,4 °C 95 % 987,3 hPa 0,0 l/m² 0 min 0 min 0 W/m² 6,4 km/h (2 Bft) 97,87 %
12.02.2026 21:22 8,2 °C 7,2 °C 4,4 °C 95 % 987,3 hPa 0,0 l/m² 0 min 0 min 0 W/m² 12,9 km/h (3 Bft) 95,74 %
12.02.2026 21:24 8,2 °C 7,2 °C 4,4 °C 95 % 987,4 hPa 0,0 l/m² 0 min 0 min 0 W/m² 12,9 km/h (3 Bft) 95,74 %
12.02.2026 21:26 8,2 °C 7,2 °C 4,4 °C 95 % 987,4 hPa 0,0 l/m² 0 min 0 min 0 W/m² 12,9 km/h (3 Bft) 97,87 %
12.02.2026 21:28 8,2 °C 7,8 °C 4,4 °C 95 % 987,3 hPa 0,0 l/m² 0 min 0 min 0 W/m² 12,9 km/h (3 Bft) 97,87 %
12.02.2026 21:30 8,2 °C 7,8 °C 4,4 °C 95 % 987,4 hPa 0,0 l/m² 0 min 0 min 0 W/m² 12,9 km/h (3 Bft) 95,74 %
12.02.2026 21:32 8,2 °C 7,8 °C 4,4 °C 95 % 987,4 hPa 0,0 l/m² 0 min 0 min 0 W/m² 9,7 km/h (2 Bft) 97,87 %
12.02.2026 21:34 8,2 °C 7,8 °C 4,4 °C 95 % 987,4 hPa 0,0 l/m² 0 min 0 min 0 W/m² 6,4 km/h (2 Bft) 95,74 %
12.02.2026 21:36 8,2 °C 7,8 °C 4,4 °C 95 % 987,5 hPa 0,0 l/m² 0 min 0 min 0 W/m² 6,4 km/h (2 Bft) 95,74 %
12.02.2026 21:38 8,2 °C 7,2 °C 4,4 °C 95 % 987,5 hPa 0,0 l/m² 0 min 0 min 0 W/m² 9,7 km/h (2 Bft) 97,87 %
12.02.2026 21:40 8,2 °C 7,2 °C 4,4 °C 95 % 987,5 hPa 0,0 l/m² 0 min 0 min 0 W/m² 16,1 km/h (3 Bft) 95,74 %
12.02.2026 21:42 8,1 °C 7,8 °C 4,4 °C 95 % 987,5 hPa 0,0 l/m² 0 min 0 min 0 W/m² 6,4 km/h (2 Bft) 97,83 %
12.02.2026 21:44 8,2 °C 7,2 °C 4,4 °C 95 % 987,6 hPa 0,0 l/m² 0 min 0 min 0 W/m² 12,9 km/h (3 Bft) 95,74 %
12.02.2026 21:46 8,1 °C 7,2 °C 4,4 °C 95 % 987,5 hPa 0,0 l/m² 0 min 0 min 0 W/m² 6,4 km/h (2 Bft) 95,74 %
12.02.2026 21:48 8,1 °C 7,2 °C 4,4 °C 95 % 987,5 hPa 0,0 l/m² 0 min 0 min 0 W/m² 9,7 km/h (2 Bft) 97,87 %
12.02.2026 21:50 8,1 °C 7,2 °C 4,4 °C 95 % 987,6 hPa 0,0 l/m² 0 min 0 min 0 W/m² 6,4 km/h (2 Bft) 74,47 %
12.02.2026 21:52 8,1 °C 7,2 °C 4,4 °C 95 % 987,5 hPa 0,0 l/m² 0 min 0 min 0 W/m² 12,9 km/h (3 Bft) 57,69 %
12.02.2026 21:54 8,1 °C 7,2 °C 4,4 °C 95 % 987,6 hPa 0,0 l/m² 0 min 0 min 0 W/m² 6,4 km/h (2 Bft) 95,74 %
12.02.2026 21:56 8,1 °C 7,2 °C 4,4 °C 95 % 987,6 hPa 0,0 l/m² 0 min 0 min 0 W/m² 6,4 km/h (2 Bft) 93,62 %
12.02.2026 21:58 8,1 °C 7,2 °C 4,4 °C 95 % 987,6 hPa 0,0 l/m² 0 min 0 min 0 W/m² 12,9 km/h (3 Bft) 95,74 %
12.02.2026 22:00 8,1 °C 7,2 °C 4,4 °C 95 % 987,6 hPa 0,0 l/m² 0 min 0 min 0 W/m² 6,4 km/h (2 Bft) 89,36 %
12.02.2026 22:02 8,1 °C 7,2 °C 4,4 °C 95 % 987,6 hPa 0,0 l/m² 0 min 0 min 0 W/m² 9,7 km/h (2 Bft) 95,65 %
12.02.2026 22:04 8,1 °C 7,2 °C 4,4 °C 95 % 987,7 hPa 0,0 l/m² 0 min 0 min 0 W/m² 9,7 km/h (2 Bft) 93,62 %
12.02.2026 22:06 8,1 °C 7,2 °C 4,4 °C 95 % 987,8 hPa 0,0 l/m² 0 min 0 min 0 W/m² 16,1 km/h (3 Bft) 95,74 %
12.02.2026 22:08 8,1 °C 7,2 °C 4,4 °C 95 % 987,7 hPa 0,0 l/m² 0 min 0 min 0 W/m² 12,9 km/h (3 Bft) 97,87 %
12.02.2026 22:10 8,1 °C 7,8 °C 4,4 °C 95 % 987,7 hPa 0,0 l/m² 0 min 0 min 0 W/m² 16,1 km/h (3 Bft) 93,62 %
12.02.2026 22:12 8,1 °C 7,2 °C 4,4 °C 95 % 987,7 hPa 0,0 l/m² 0 min 0 min 0 W/m² 22,5 km/h (4 Bft) 93,62 %
12.02.2026 22:14 8,1 °C 7,2 °C 4,4 °C 95 % 987,8 hPa 0,0 l/m² 0 min 0 min 0 W/m² 12,9 km/h (3 Bft) 93,62 %
12.02.2026 22:16 8,1 °C 7,8 °C 4,4 °C 95 % 987,8 hPa 0,0 l/m² 0 min 0 min 0 W/m² 19,3 km/h (3 Bft) 95,74 %
12.02.2026 22:18 8,1 °C 7,8 °C 4,4 °C 94 % 987,9 hPa 0,0 l/m² 0 min 0 min 0 W/m² 12,9 km/h (3 Bft) 95,74 %
12.02.2026 22:20 8,1 °C 7,2 °C 4,4 °C 94 % 987,8 hPa 0,0 l/m² 0 min 0 min 0 W/m² 6,4 km/h (2 Bft) 97,87 %
12.02.2026 22:22 8,1 °C 7,2 °C 4,4 °C 94 % 987,8 hPa 0,0 l/m² 0 min 0 min 0 W/m² 12,9 km/h (3 Bft) 95,74 %
12.02.2026 22:24 8,1 °C 7,2 °C 4,4 °C 94 % 987,8 hPa 0,0 l/m² 0 min 0 min 0 W/m² 6,4 km/h (2 Bft) 95,74 %
12.02.2026 22:26 8,1 °C 7,2 °C 4,4 °C 94 % 987,9 hPa 0,0 l/m² 0 min 0 min 0 W/m² 6,4 km/h (2 Bft) 95,65 %
12.02.2026 22:28 8,1 °C 7,2 °C 4,4 °C 94 % 987,9 hPa 0,0 l/m² 0 min 0 min 0 W/m² 9,7 km/h (2 Bft) 93,62 %
12.02.2026 22:30 8,1 °C 7,2 °C 4,4 °C 94 % 987,9 hPa 0,0 l/m² 0 min 0 min 0 W/m² 12,9 km/h (3 Bft) 97,87 %
12.02.2026 22:32 8,1 °C 7,2 °C 4,4 °C 94 % 987,9 hPa 0,0 l/m² 0 min 0 min 0 W/m² 6,4 km/h (2 Bft) 97,87 %
12.02.2026 22:34 8,1 °C 7,2 °C 4,4 °C 94 % 987,9 hPa 0,0 l/m² 0 min 0 min 0 W/m² 9,7 km/h (2 Bft) 95,74 %
12.02.2026 22:36 8,1 °C 7,2 °C 4,4 °C 94 % 987,9 hPa 0,0 l/m² 0 min 0 min 0 W/m² 9,7 km/h (2 Bft) 93,62 %
12.02.2026 22:38 8,1 °C 7,2 °C 4,4 °C 94 % 987,9 hPa 0,0 l/m² 0 min 0 min 0 W/m² 6,4 km/h (2 Bft) 95,74 %
12.02.2026 22:40 8,0 °C 7,2 °C 4,4 °C 94 % 987,9 hPa 0,0 l/m² 0 min 0 min 0 W/m² 6,4 km/h (2 Bft) 97,87 %
12.02.2026 22:42 8,0 °C 7,2 °C 4,4 °C 94 % 987,9 hPa 0,0 l/m² 0 min 0 min 0 W/m² 6,4 km/h (2 Bft) 95,74 %
12.02.2026 22:44 8,0 °C 7,2 °C 4,4 °C 94 % 987,9 hPa 0,0 l/m² 0 min 0 min 0 W/m² 6,4 km/h (2 Bft) 97,87 %
12.02.2026 22:46 8,0 °C 7,2 °C 4,4 °C 94 % 987,9 hPa 0,0 l/m² 0 min 0 min 0 W/m² 6,4 km/h (2 Bft) 95,74 %
12.02.2026 22:48 8,0 °C 7,2 °C 4,4 °C 94 % 987,9 hPa 0,0 l/m² 0 min 0 min 0 W/m² 6,4 km/h (2 Bft) 97,87 %
12.02.2026 22:50 8,1 °C 7,2 °C 4,4 °C 94 % 987,9 hPa 0,0 l/m² 0 min 0 min 0 W/m² 12,9 km/h (3 Bft) 95,65 %
12.02.2026 22:52 8,1 °C 7,2 °C 4,4 °C 93 % 987,9 hPa 0,0 l/m² 0 min 0 min 0 W/m² 6,4 km/h (2 Bft) 97,87 %
12.02.2026 22:54 8,0 °C 7,2 °C 4,4 °C 94 % 987,9 hPa 0,0 l/m² 0 min 0 min 0 W/m² 16,1 km/h (3 Bft) 97,87 %
12.02.2026 22:56 8,1 °C 7,2 °C 4,4 °C 93 % 988,0 hPa 0,0 l/m² 0 min 0 min 0 W/m² 12,9 km/h (3 Bft) 100,00 %
12.02.2026 22:58 8,1 °C 7,2 °C 4,4 °C 93 % 988,0 hPa 0,0 l/m² 0 min 0 min 0 W/m² 12,9 km/h (3 Bft) 100,00 %
12.02.2026 23:00 8,1 °C 7,2 °C 4,4 °C 93 % 988,0 hPa 0,0 l/m² 0 min 0 min 0 W/m² 12,9 km/h (3 Bft) 97,87 %
12.02.2026 23:02 8,1 °C 7,2 °C 4,4 °C 93 % 988,0 hPa 0,0 l/m² 0 min 0 min 0 W/m² 6,4 km/h (2 Bft) 97,87 %
12.02.2026 23:04 8,1 °C 7,2 °C 4,4 °C 93 % 988,0 hPa 0,0 l/m² 0 min 0 min 0 W/m² 9,7 km/h (2 Bft) 100,00 %
12.02.2026 23:06 8,1 °C 7,2 °C 4,4 °C 93 % 988,0 hPa 0,0 l/m² 0 min 0 min 0 W/m² 12,9 km/h (3 Bft) 100,00 %
12.02.2026 23:08 8,1 °C 7,2 °C 4,4 °C 93 % 988,1 hPa 0,0 l/m² 0 min 0 min 0 W/m² 25,7 km/h (4 Bft) 97,96 %
12.02.2026 23:10 8,1 °C 7,2 °C 4,4 °C 93 % 988,0 hPa 0,0 l/m² 0 min 0 min 0 W/m² 12,9 km/h (3 Bft) 97,14 %
12.02.2026 23:12 8,1 °C 7,2 °C 4,4 °C 93 % 988,1 hPa 0,0 l/m² 0 min 0 min 0 W/m² 6,4 km/h (2 Bft) 100,00 %
12.02.2026 23:14 8,1 °C 7,2 °C 4,4 °C 93 % 988,1 hPa 0,0 l/m² 0 min 0 min 0 W/m² 6,4 km/h (2 Bft) 100,00 %
12.02.2026 23:16 8,1 °C 7,2 °C 4,4 °C 93 % 988,1 hPa 0,0 l/m² 0 min 0 min 0 W/m² 6,4 km/h (2 Bft) 97,87 %
12.02.2026 23:18 8,1 °C 7,2 °C 4,4 °C 93 % 988,2 hPa 0,0 l/m² 0 min 0 min 0 W/m² 6,4 km/h (2 Bft) 100,00 %
12.02.2026 23:20 8,1 °C 7,2 °C 4,4 °C 93 % 988,1 hPa 0,0 l/m² 0 min 0 min 0 W/m² 3,2 km/h (1 Bft) 100,00 %
12.02.2026 23:22 8,1 °C 7,2 °C 4,4 °C 93 % 988,1 hPa 0,0 l/m² 0 min 0 min 0 W/m² 12,9 km/h (3 Bft) 100,00 %
12.02.2026 23:24 8,1 °C 7,2 °C 4,4 °C 93 % 988,0 hPa 0,0 l/m² 0 min 0 min 0 W/m² 6,4 km/h (2 Bft) 100,00 %
12.02.2026 23:26 8,1 °C 7,2 °C 4,4 °C 93 % 988,0 hPa 0,0 l/m² 0 min 0 min 0 W/m² 6,4 km/h (2 Bft) 100,00 %
12.02.2026 23:28 8,1 °C 7,2 °C 4,4 °C 93 % 988,0 hPa 0,0 l/m² 0 min 0 min 0 W/m² 12,9 km/h (3 Bft) 100,00 %
12.02.2026 23:30 8,1 °C 7,2 °C 4,4 °C 93 % 988,1 hPa 0,0 l/m² 0 min 0 min 0 W/m² 3,2 km/h (1 Bft) 100,00 %
12.02.2026 23:32 8,1 °C 7,2 °C 4,4 °C 93 % 988,1 hPa 0,0 l/m² 0 min 0 min 0 W/m² 6,4 km/h (2 Bft) 100,00 %
12.02.2026 23:34 8,1 °C 7,2 °C 4,4 °C 93 % 988,1 hPa 0,0 l/m² 0 min 0 min 0 W/m² 6,4 km/h (2 Bft) 97,87 %
12.02.2026 23:36 8,1 °C 7,2 °C 4,4 °C 94 % 988,0 hPa 0,0 l/m² 0 min 0 min 0 W/m² 9,7 km/h (2 Bft) 100,00 %
12.02.2026 23:38 8,1 °C 7,2 °C 4,4 °C 94 % 988,1 hPa 0,0 l/m² 0 min 0 min 0 W/m² 3,2 km/h (1 Bft) 97,87 %
12.02.2026 23:40 8,1 °C 7,2 °C 4,4 °C 93 % 988,2 hPa 0,0 l/m² 0 min 0 min 0 W/m² 6,4 km/h (2 Bft) 97,87 %
12.02.2026 23:42 8,1 °C 7,2 °C 4,4 °C 93 % 988,1 hPa 0,0 l/m² 0 min 0 min 0 W/m² 6,4 km/h (2 Bft) 97,87 %
12.02.2026 23:44 8,1 °C 7,2 °C 4,4 °C 94 % 988,1 hPa 0,0 l/m² 0 min 0 min 0 W/m² 6,4 km/h (2 Bft) 97,87 %
12.02.2026 23:46 8,0 °C 7,2 °C 4,4 °C 94 % 988,0 hPa 0,0 l/m² 0 min 0 min 0 W/m² 3,2 km/h (1 Bft) 97,87 %
12.02.2026 23:48 8,0 °C 7,2 °C 4,4 °C 94 % 988,1 hPa 0,0 l/m² 0 min 0 min 0 W/m² 6,4 km/h (2 Bft) 95,74 %
12.02.2026 23:50 8,0 °C 7,2 °C 4,4 °C 94 % 988,2 hPa 0,0 l/m² 0 min 0 min 0 W/m² 0,0 km/h (0 Bft) 93,62 %
12.02.2026 23:52 8,0 °C 7,2 °C 4,4 °C 94 % 988,1 hPa 0,0 l/m² 0 min 0 min 0 W/m² 6,4 km/h (2 Bft) 95,65 %
12.02.2026 23:54 8,0 °C 7,2 °C 4,4 °C 94 % 988,2 hPa 0,0 l/m² 0 min 0 min 0 W/m² 6,4 km/h (2 Bft) 95,74 %
12.02.2026 23:56 7,9 °C 7,2 °C 4,4 °C 94 % 988,2 hPa 0,0 l/m² 0 min 0 min 0 W/m² 6,4 km/h (2 Bft) 95,74 %
12.02.2026 23:58 7,9 °C 7,2 °C 3,9 °C 94 % 988,2 hPa 0,0 l/m² 0 min 0 min 0 W/m² 6,4 km/h (2 Bft) 95,74 %
_ Min-Zeit 08:02 01:06 01:18 15:12 06:46 - - - - 06:52 16:08
Minimum _ 7,9 °C 7,2 °C 3,9 °C 93 % 973,7 hPa - - - - 0,0 km/h (0 Bft) 4,76 %
_ Max-Zeit 14:46 14:40 14:38 12:16 23:18 00:46 14:14 03:11 14:40 11:16 00:00
Maximum _ 10,3 °C 12,8 °C 6,7 °C 100 % 988,2 hPa 0,2 l/m² 2 min 5 min 489 W/m² 35,4 km/h
NW (5 Bft)
100,00 %
Durchschnitt _ 8,4 °C 7,8 °C 4,8 °C 97 % 980,4 hPa #12,5 l/m² #34 min. #4:32 h 70 W/m² 11,6 km/h (2 Bft) 96,87 %
© 2026 W. Hausmann